Observation data for Coyanosa on 03/05/2021      Previous  Date  Next       Current Mesonet Observations  Soil Data  Daily Summary Page  Observations in Plain Language
KCO1 050600Z 30010KT 16/M12 A3003 RMK A01 T01611123  RH  013%=      5-min Rain = 0
KCO1 050601Z 31011KT 16/M12 A3003 RMK A01 T01621122  RH  013%=      5-min Rain = 0
KCO1 050602Z 32014KT 16/M12 A3004 RMK A01 T01601123  RH  013%=      5-min Rain = 0
KCO1 050603Z 32013KT 16/M12 A3004 RMK A01 T01571124  RH  013%=      5-min Rain = 0
KCO1 050604Z 31009KT 15/M12 A3003 RMK A01 T01541124  RH  013%=      5-min Rain = 0
KCO1 050605Z 30011G16KT 15/M12 A3003 RMK A01 T01521124  RH  014%=      5-min Rain = 0
KCO1 050606Z 31013KT 15/M12 A3004 RMK A01 T01521124  RH  014%=      5-min Rain = 0
KCO1 050607Z 31011KT 15/M12 A3004 RMK A01 T01511123  RH  014%=      5-min Rain = 0
KCO1 050608Z 30010KT 15/M12 A3003 RMK A01 T01501123  RH  014%=      5-min Rain = 0
KCO1 050609Z 29009KT 15/M12 A3003 RMK A01 T01491124  RH  014%=      5-min Rain = 0
KCO1 050610Z 30008KT 15/M12 A3003 RMK A01 T01481123  RH  014%=      5-min Rain = 0
KCO1 050611Z 29008KT 15/M12 A3003 RMK A01 T01471123  RH  014%=      5-min Rain = 0
KCO1 050612Z 28008KT 15/M12 A3004 RMK A01 T01461123  RH  014%=      5-min Rain = 0
KCO1 050613Z 28008KT 15/M12 A3004 RMK A01 T01451122  RH  015%=      5-min Rain = 0
KCO1 050614Z 28008KT 14/M12 A3004 RMK A01 T01441122  RH  015%=      5-min Rain = 0
KCO1 050615Z 28008KT 14/M12 A3004 RMK A01 T01431122  RH  015%=      5-min Rain = 0
KCO1 050616Z 28007KT 14/M12 A3004 RMK A01 T01421121  RH  015%=      5-min Rain = 0
KCO1 050617Z 28007KT 14/M12 A3004 RMK A01 T01411122  RH  015%=      5-min Rain = 0
KCO1 050618Z 29006KT 14/M12 A3004 RMK A01 T01401121  RH  015%=      5-min Rain = 0
KCO1 050619Z 32005KT 14/M12 A3004 RMK A01 T01401120  RH  015%=      5-min Rain = 0
KCO1 050620Z 33006KT 14/M12 A3004 RMK A01 T01381120  RH  015%=      5-min Rain = 0
KCO1 050621Z 31007KT 14/M12 A3004 RMK A01 T01351121  RH  016%=      5-min Rain = 0
KCO1 050622Z 30007KT 14/M12 A3004 RMK A01 T01351122  RH  016%=      5-min Rain = 0
KCO1 050623Z 30007KT 14/M12 A3004 RMK A01 T01351122  RH  016%=      5-min Rain = 0
KCO1 050624Z 29008KT 14/M12 A3004 RMK A01 T01351122  RH  016%=      5-min Rain = 0
KCO1 050625Z 28008KT 13/M12 A3004 RMK A01 T01341122  RH  016%=      5-min Rain = 0
KCO1 050626Z 28008KT 13/M12 A3004 RMK A01 T01341121  RH  016%=      5-min Rain = 0
KCO1 050627Z 28007KT 13/M12 A3004 RMK A01 T01341120  RH  016%=      5-min Rain = 0
KCO1 050628Z 28008KT 13/M12 A3004 RMK A01 T01331120  RH  016%=      5-min Rain = 0
KCO1 050629Z 28007KT 13/M12 A3004 RMK A01 T01321120  RH  016%=      5-min Rain = 0
KCO1 050630Z 29007KT 13/M12 A3004 RMK A01 T01311120  RH  016%=      5-min Rain = 0
KCO1 050631Z 29007KT 13/M12 A3004 RMK A01 T01311120  RH  016%=      5-min Rain = 0
KCO1 050632Z 29008KT 13/M12 A3004 RMK A01 T01311119  RH  016%=      5-min Rain = 0
KCO1 050633Z 29008KT 13/M12 A3004 RMK A01 T01301119  RH  016%=      5-min Rain = 0
KCO1 050634Z 29008KT 13/M12 A3004 RMK A01 T01301119  RH  017%=      5-min Rain = 0
KCO1 050635Z 29008KT 13/M12 A3004 RMK A01 T01291118  RH  017%=      5-min Rain = 0
KCO1 050636Z 28008KT 13/M12 A3004 RMK A01 T01281118  RH  017%=      5-min Rain = 0
KCO1 050637Z 28008KT 13/M12 A3004 RMK A01 T01291118  RH  017%=      5-min Rain = 0
KCO1 050638Z 28008KT 13/M12 A3004 RMK A01 T01291117  RH  017%=      5-min Rain = 0
KCO1 050639Z 28008KT 13/M12 A3004 RMK A01 T01301116  RH  017%=      5-min Rain = 0
KCO1 050640Z 28008KT 13/M12 A3004 RMK A01 T01301116  RH  017%=      5-min Rain = 0
KCO1 050641Z 28009KT 13/M11 A3004 RMK A01 T01311114  RH  017%=      5-min Rain = 0
KCO1 050642Z 28009KT 13/M11 A3004 RMK A01 T01311113  RH  017%=      5-min Rain = 0
KCO1 050643Z 28009KT 13/M11 A3004 RMK A01 T01321112  RH  017%=      5-min Rain = 0
KCO1 050644Z 28009KT 13/M11 A3004 RMK A01 T01331112  RH  017%=      5-min Rain = 0
KCO1 050645Z 28010KT 13/M11 A3004 RMK A01 T01331112  RH  017%=      5-min Rain = 0
KCO1 050646Z 28010KT 13/M11 A3004 RMK A01 T01331112  RH  017%=      5-min Rain = 0
KCO1 050647Z 28010KT 13/M11 A3005 RMK A01 T01331112  RH  017%=      5-min Rain = 0
KCO1 050648Z 28009KT 13/M11 A3005 RMK A01 T01331112  RH  017%=      5-min Rain = 0
KCO1 050649Z 28010KT 13/M11 A3005 RMK A01 T01331110  RH  017%=      5-min Rain = 0
KCO1 050650Z 28010KT 13/M11 A3005 RMK A01 T01331110  RH  017%=      5-min Rain = 0
KCO1 050651Z 29010KT 13/M11 A3005 RMK A01 T01331110  RH  017%=      5-min Rain = 0
KCO1 050652Z 28011KT 13/M11 A3005 RMK A01 T01341109  RH  017%=      5-min Rain = 0
KCO1 050653Z 28011KT 14/M11 A3004 RMK A01 T01351109  RH  017%=      5-min Rain = 0
KCO1 050654Z 28010KT 14/M11 A3004 RMK A01 T01361109  RH  017%=      5-min Rain = 0
KCO1 050655Z 28010KT 14/M11 A3004 RMK A01 T01361109  RH  017%=      5-min Rain = 0
KCO1 050656Z 29010KT 14/M11 A3004 RMK A01 T01371109  RH  017%=      5-min Rain = 0
KCO1 050657Z 29010KT 14/M11 A3004 RMK A01 T01371109  RH  017%=      5-min Rain = 0
KCO1 050658Z 29011KT 14/M11 A3004 RMK A01 T01371108  RH  017%=      5-min Rain = 0
KCO1 050659Z 29010KT 14/M11 A3004 RMK A01 T01371108  RH  017%=      5-min Rain = 0
KCO1 050700Z 29009KT 14/M11 A3004 RMK A01 T01371107  RH  017%=      5-min Rain = 0
KCO1 050701Z 29010KT 14/M11 A3004 RMK A01 T01371107  RH  017%=      5-min Rain = 0
KCO1 050702Z 29010KT 14/M11 A3004 RMK A01 T01381106  RH  017%=      5-min Rain = 0
KCO1 050703Z 29011KT 14/M11 A3004 RMK A01 T01381105  RH  017%=      5-min Rain = 0
KCO1 050704Z 29010KT 14/M11 A3004 RMK A01 T01381105  RH  017%=      5-min Rain = 0
KCO1 050705Z 29009KT 14/M11 A3004 RMK A01 T01381105  RH  018%=      5-min Rain = 0
KCO1 050706Z 29010KT 14/M11 A3004 RMK A01 T01361106  RH  018%=      5-min Rain = 0
KCO1 050707Z 29010KT 14/M11 A3004 RMK A01 T01361105  RH  018%=      5-min Rain = 0
KCO1 050708Z 29009KT 14/M10 A3004 RMK A01 T01361104  RH  018%=      5-min Rain = 0
KCO1 050709Z 29009KT 14/M10 A3005 RMK A01 T01361103  RH  018%=      5-min Rain = 0
KCO1 050710Z 29010KT 14/M10 A3005 RMK A01 T01351103  RH  018%=      5-min Rain = 0
KCO1 050711Z 29008KT 14/M10 A3005 RMK A01 T01351103  RH  018%=      5-min Rain = 0
KCO1 050712Z 29010KT 13/M10 A3005 RMK A01 T01341103  RH  018%=      5-min Rain = 0
KCO1 050713Z 29009KT 14/M10 A3005 RMK A01 T01351102  RH  018%=      5-min Rain = 0
KCO1 050714Z 29008KT 14/M10 A3005 RMK A01 T01351102  RH  018%=      5-min Rain = 0
KCO1 050715Z 29008KT 14/M10 A3005 RMK A01 T01351101  RH  018%=      5-min Rain = 0
KCO1 050716Z 30008KT 14/M10 A3005 RMK A01 T01351100  RH  019%=      5-min Rain = 0
KCO1 050717Z 29009KT 14/M10 A3005 RMK A01 T01351099  RH  019%=      5-min Rain = 0
KCO1 050718Z 29008KT 14/M10 A3005 RMK A01 T01351099  RH  019%=      5-min Rain = 0
KCO1 050719Z 29008KT 14/M10 A3005 RMK A01 T01351099  RH  019%=      5-min Rain = 0
KCO1 050720Z 30008KT 14/M10 A3005 RMK A01 T01351098  RH  019%=      5-min Rain = 0
KCO1 050721Z 30008KT 14/M10 A3005 RMK A01 T01351097  RH  019%=      5-min Rain = 0
KCO1 050722Z 29008KT 14/M10 A3005 RMK A01 T01361097  RH  019%=      5-min Rain = 0
KCO1 050723Z 30009KT 14/M10 A3005 RMK A01 T01351097  RH  019%=      5-min Rain = 0
KCO1 050724Z 30009KT 14/M10 A3005 RMK A01 T01361095  RH  019%=      5-min Rain = 0
KCO1 050725Z 30009KT 14/M10 A3005 RMK A01 T01381095  RH  019%=      5-min Rain = 0
KCO1 050726Z 30010KT 14/M10 A3005 RMK A01 T01371095  RH  019%=      5-min Rain = 0
KCO1 050727Z 29009KT 14/M09 A3005 RMK A01 T01391094  RH  019%=      5-min Rain = 0
KCO1 050728Z 30009KT 14/M09 A3005 RMK A01 T01391094  RH  019%=      5-min Rain = 0
KCO1 050729Z 30008KT 14/M09 A3005 RMK A01 T01381094  RH  019%=      5-min Rain = 0
KCO1 050730Z 30009KT 14/M09 A3005 RMK A01 T01381092  RH  019%=      5-min Rain = 0
KCO1 050731Z 31009KT 14/M09 A3005 RMK A01 T01381092  RH  019%=      5-min Rain = 0
KCO1 050732Z 31008KT 14/M09 A3005 RMK A01 T01381091  RH  020%=      5-min Rain = 0
KCO1 050733Z 31008KT 14/M09 A3005 RMK A01 T01381091  RH  020%=      5-min Rain = 0
KCO1 050734Z 31009KT 14/M09 A3005 RMK A01 T01391089  RH  020%=      5-min Rain = 0
KCO1 050735Z 31008KT 14/M09 A3005 RMK A01 T01391088  RH  020%=      5-min Rain = 0
KCO1 050736Z 31008KT 14/M09 A3005 RMK A01 T01391088  RH  020%=      5-min Rain = 0
KCO1 050737Z 31009KT 14/M09 A3005 RMK A01 T01401087  RH  020%=      5-min Rain = 0
KCO1 050738Z 31008KT 14/M09 A3005 RMK A01 T01421085  RH  020%=      5-min Rain = 0
KCO1 050739Z 31008KT 14/M09 A3005 RMK A01 T01421086  RH  020%=      5-min Rain = 0
KCO1 050740Z 31008KT 14/M09 A3005 RMK A01 T01421085  RH  020%=      5-min Rain = 0
KCO1 050741Z 31009KT 14/M09 A3005 RMK A01 T01421085  RH  020%=      5-min Rain = 0
KCO1 050742Z 31009KT 14/M08 A3005 RMK A01 T01421084  RH  020%=      5-min Rain = 0
KCO1 050743Z 31008KT 14/M08 A3005 RMK A01 T01431083  RH  020%=      5-min Rain = 0
KCO1 050744Z 31009KT 14/M08 A3005 RMK A01 T01431083  RH  020%=      5-min Rain = 0
KCO1 050745Z 31010KT 14/M08 A3005 RMK A01 T01431083  RH  020%=      5-min Rain = 0
KCO1 050746Z 31008KT 14/M08 A3005 RMK A01 T01441081  RH  020%=      5-min Rain = 0
KCO1 050747Z 31010KT 14/M08 A3005 RMK A01 T01431082  RH  020%=      5-min Rain = 0
KCO1 050748Z 31008KT 14/M08 A3005 RMK A01 T01441081  RH  020%=      5-min Rain = 0
KCO1 050749Z 31008KT 14/M08 A3005 RMK A01 T01431081  RH  020%=      5-min Rain = 0
KCO1 050750Z 30008KT 14/M08 A3005 RMK A01 T01421082  RH  020%=      5-min Rain = 0
KCO1 050751Z 30008KT 14/M08 A3005 RMK A01 T01411082  RH  021%=      5-min Rain = 0
KCO1 050752Z 29008KT 14/M08 A3005 RMK A01 T01391083  RH  021%=      5-min Rain = 0
KCO1 050753Z 29008KT 14/M08 A3006 RMK A01 T01371084  RH  021%=      5-min Rain = 0
KCO1 050754Z 29008KT 14/M08 A3006 RMK A01 T01351084  RH  021%=      5-min Rain = 0
KCO1 050755Z 28008KT 13/M09 A3006 RMK A01 T01321085  RH  021%=      5-min Rain = 0
KCO1 050756Z 28008KT 13/M08 A3006 RMK A01 T01301084  RH  022%=      5-min Rain = 0
KCO1 050757Z 28008KT 13/M08 A3006 RMK A01 T01291084  RH  022%=      5-min Rain = 0
KCO1 050758Z 28008KT 13/M08 A3006 RMK A01 T01281083  RH  022%=      5-min Rain = 0
KCO1 050759Z 27008KT 13/M08 A3006 RMK A01 T01271084  RH  022%=      5-min Rain = 0
KCO1 050800Z 28008KT 13/M08 A3006 RMK A01 T01261083  RH  022%=      5-min Rain = 0
KCO1 050801Z 28008KT 13/M08 A3006 RMK A01 T01261083  RH  023%=      5-min Rain = 0
KCO1 050802Z 27008KT 13/M08 A3006 RMK A01 T01261082  RH  023%=      5-min Rain = 0
KCO1 050803Z 27008KT 13/M08 A3006 RMK A01 T01271080  RH  023%=      5-min Rain = 0
KCO1 050804Z 28007KT 13/M08 A3006 RMK A01 T01281080  RH  023%=      5-min Rain = 0
KCO1 050805Z 28008KT 13/M08 A3006 RMK A01 T01281079  RH  023%=      5-min Rain = 0
KCO1 050806Z 28007KT 13/M08 A3006 RMK A01 T01281079  RH  023%=      5-min Rain = 0
KCO1 050807Z 28007KT 13/M08 A3006 RMK A01 T01281080  RH  023%=      5-min Rain = 0
KCO1 050808Z 28006KT 13/M08 A3006 RMK A01 T01281080  RH  023%=      5-min Rain = 0
KCO1 050809Z 28007KT 13/M08 A3006 RMK A01 T01271080  RH  023%=      5-min Rain = 0
KCO1 050810Z 26006KT 13/M08 A3006 RMK A01 T01261079  RH  023%=      5-min Rain = 0
KCO1 050811Z 26007KT 13/M08 A3006 RMK A01 T01261079  RH  023%=      5-min Rain = 0
KCO1 050812Z 25006KT 13/M08 A3006 RMK A01 T01251079  RH  023%=      5-min Rain = 0
KCO1 050813Z 26006KT 13/M08 A3006 RMK A01 T01261080  RH  023%=      5-min Rain = 0
KCO1 050814Z 25005KT 13/M08 A3006 RMK A01 T01291080  RH  022%=      5-min Rain = 0
KCO1 050815Z 25005KT 13/M08 A3006 RMK A01 T01311080  RH  022%=      5-min Rain = 0
KCO1 050816Z 24005KT 13/M08 A3006 RMK A01 T01311080  RH  022%=      5-min Rain = 0
KCO1 050817Z 23006KT 13/M08 A3006 RMK A01 T01301081  RH  022%=      5-min Rain = 0
KCO1 050818Z 23006KT 13/M08 A3006 RMK A01 T01281082  RH  022%=      5-min Rain = 0
KCO1 050819Z 24006KT 13/M08 A3006 RMK A01 T01281082  RH  022%=      5-min Rain = 0
KCO1 050820Z 23006KT 13/M08 A3006 RMK A01 T01271083  RH  022%=      5-min Rain = 0
KCO1 050821Z 23006KT 13/M08 A3006 RMK A01 T01281083  RH  022%=      5-min Rain = 0
KCO1 050822Z 23006KT 13/M08 A3006 RMK A01 T01271083  RH  022%=      5-min Rain = 0
KCO1 050823Z 23005KT 13/M08 A3006 RMK A01 T01271083  RH  022%=      5-min Rain = 0
KCO1 050824Z 23005KT 13/M08 A3006 RMK A01 T01261083  RH  022%=      5-min Rain = 0
KCO1 050825Z 23005KT 13/M08 A3006 RMK A01 T01251084  RH  023%=      5-min Rain = 0
KCO1 050826Z 23006KT 12/M08 A3006 RMK A01 T01241083  RH  023%=      5-min Rain = 0
KCO1 050827Z 24005KT 12/M08 A3006 RMK A01 T01221084  RH  023%=      5-min Rain = 0
KCO1 050828Z 23004KT 12/M08 A3006 RMK A01 T01211083  RH  023%=      5-min Rain = 0
KCO1 050829Z 24005KT 12/M08 A3006 RMK A01 T01201084  RH  023%=      5-min Rain = 0
KCO1 050830Z 25004KT 12/M08 A3006 RMK A01 T01191084  RH  023%=      5-min Rain = 0
KCO1 050831Z 25004KT 12/M08 A3006 RMK A01 T01181084  RH  024%=      5-min Rain = 0
KCO1 050832Z 25005KT 12/M08 A3007 RMK A01 T01181083  RH  024%=      5-min Rain = 0
KCO1 050833Z 26005KT 12/M08 A3007 RMK A01 T01181082  RH  024%=      5-min Rain = 0
KCO1 050834Z 25005KT 12/M08 A3006 RMK A01 T01191081  RH  024%=      5-min Rain = 0
KCO1 050835Z 26005KT 12/M08 A3007 RMK A01 T01211081  RH  024%=      5-min Rain = 0
KCO1 050836Z 25005KT 12/M08 A3006 RMK A01 T01221080  RH  023%=      5-min Rain = 0
KCO1 050837Z 25006KT 12/M08 A3006 RMK A01 T01231080  RH  024%=      5-min Rain = 0
KCO1 050838Z 26005KT 12/M08 A3006 RMK A01 T01241079  RH  023%=      5-min Rain = 0
KCO1 050839Z 25006KT 13/M08 A3006 RMK A01 T01251078  RH  023%=      5-min Rain = 0
KCO1 050840Z 25006KT 13/M08 A3006 RMK A01 T01261078  RH  023%=      5-min Rain = 0
KCO1 050841Z 25005KT 13/M08 A3007 RMK A01 T01261078  RH  023%=      5-min Rain = 0
KCO1 050842Z 26005KT 13/M08 A3007 RMK A01 T01261078  RH  023%=      5-min Rain = 0
KCO1 050843Z 26006KT 13/M08 A3007 RMK A01 T01261078  RH  023%=      5-min Rain = 0
KCO1 050844Z 27005KT 13/M08 A3007 RMK A01 T01271077  RH  023%=      5-min Rain = 0
KCO1 050845Z 27006KT 13/M08 A3007 RMK A01 T01281077  RH  023%=      5-min Rain = 0
KCO1 050846Z 26005KT 13/M08 A3007 RMK A01 T01291076  RH  023%=      5-min Rain = 0
KCO1 050847Z 26006KT 13/M08 A3007 RMK A01 T01301076  RH  023%=      5-min Rain = 0
KCO1 050848Z 27007KT 13/M08 A3007 RMK A01 T01281076  RH  023%=      5-min Rain = 0
KCO1 050849Z 27007KT 13/M08 A3007 RMK A01 T01281076  RH  023%=      5-min Rain = 0
KCO1 050850Z 27007KT 13/M08 A3007 RMK A01 T01281077  RH  023%=      5-min Rain = 0
KCO1 050851Z 27006KT 13/M08 A3007 RMK A01 T01281077  RH  023%=      5-min Rain = 0
KCO1 050852Z 27006KT 13/M08 A3007 RMK A01 T01271078  RH  023%=      5-min Rain = 0
KCO1 050853Z 27006KT 13/M08 A3007 RMK A01 T01261078  RH  023%=      5-min Rain = 0
KCO1 050854Z 27006KT 12/M08 A3007 RMK A01 T01241079  RH  023%=      5-min Rain = 0
KCO1 050855Z 27006KT 12/M08 A3007 RMK A01 T01221079  RH  024%=      5-min Rain = 0
KCO1 050856Z 27006KT 12/M08 A3007 RMK A01 T01201079  RH  024%=      5-min Rain = 0
KCO1 050857Z 27007KT 12/M08 A3007 RMK A01 T01191079  RH  024%=      5-min Rain = 0
KCO1 050858Z 27007KT 12/M08 A3007 RMK A01 T01181079  RH  024%=      5-min Rain = 0
KCO1 050859Z 27007KT 12/M08 A3007 RMK A01 T01181079  RH  024%=      5-min Rain = 0
KCO1 050900Z 27007KT 12/M08 A3007 RMK A01 T01181078  RH  025%=      5-min Rain = 0
KCO1 050901Z 27007KT 12/M08 A3007 RMK A01 T01181078  RH  025%=      5-min Rain = 0
KCO1 050902Z 26008KT 12/M08 A3007 RMK A01 T01171078  RH  025%=      5-min Rain = 0
KCO1 050903Z 26008KT 12/M08 A3006 RMK A01 T01171078  RH  025%=      5-min Rain = 0
KCO1 050904Z 26007KT 12/M08 A3006 RMK A01 T01171077  RH  025%=      5-min Rain = 0
KCO1 050905Z 26007KT 12/M08 A3006 RMK A01 T01181077  RH  025%=      5-min Rain = 0
KCO1 050906Z 26008KT 12/M08 A3006 RMK A01 T01191077  RH  025%=      5-min Rain = 0
KCO1 050907Z 26007KT 12/M08 A3006 RMK A01 T01211077  RH  024%=      5-min Rain = 0
KCO1 050908Z 25007KT 12/M08 A3006 RMK A01 T01211078  RH  024%=      5-min Rain = 0
KCO1 050909Z 26008KT 12/M08 A3006 RMK A01 T01211078  RH  024%=      5-min Rain = 0
KCO1 050910Z 26009KT 12/M08 A3006 RMK A01 T01201078  RH  024%=      5-min Rain = 0
KCO1 050911Z 25008KT 12/M08 A3006 RMK A01 T01181078  RH  025%=      5-min Rain = 0
KCO1 050912Z 25009KT 12/M08 A3006 RMK A01 T01161079  RH  025%=      5-min Rain = 0
KCO1 050913Z 25009KT 11/M08 A3006 RMK A01 T01141079  RH  025%=      5-min Rain = 0
KCO1 050914Z 24009KT 11/M08 A3006 RMK A01 T01121079  RH  025%=      5-min Rain = 0
KCO1 050915Z 24008KT 11/M08 A3006 RMK A01 T01111078  RH  026%=      5-min Rain = 0
KCO1 050916Z 24008KT 11/M08 A3006 RMK A01 T01101078  RH  026%=      5-min Rain = 0
KCO1 050917Z 25009KT 11/M08 A3006 RMK A01 T01111078  RH  026%=      5-min Rain = 0
KCO1 050918Z 25009KT 11/M08 A3006 RMK A01 T01121077  RH  026%=      5-min Rain = 0
KCO1 050919Z 25008KT 11/M08 A3006 RMK A01 T01121077  RH  026%=      5-min Rain = 0
KCO1 050920Z 24008KT 11/M08 A3006 RMK A01 T01121077  RH  026%=      5-min Rain = 0
KCO1 050921Z 24007KT 11/M08 A3006 RMK A01 T01121078  RH  026%=      5-min Rain = 0
KCO1 050922Z 25007KT 11/M08 A3006 RMK A01 T01131078  RH  026%=      5-min Rain = 0
KCO1 050923Z 25008KT 11/M08 A3006 RMK A01 T01131077  RH  026%=      5-min Rain = 0
KCO1 050924Z 25008KT 11/M08 A3006 RMK A01 T01131077  RH  026%=      5-min Rain = 0
KCO1 050925Z 25007KT 12/M08 A3007 RMK A01 T01151077  RH  025%=      5-min Rain = 0
KCO1 050926Z 26007KT 12/M08 A3007 RMK A01 T01151077  RH  025%=      5-min Rain = 0
KCO1 050927Z 26007KT 12/M08 A3007 RMK A01 T01161078  RH  025%=      5-min Rain = 0
KCO1 050928Z 27006KT 12/M08 A3007 RMK A01 T01151078  RH  025%=      5-min Rain = 0
KCO1 050929Z 25007KT 12/M08 A3007 RMK A01 T01161077  RH  025%=      5-min Rain = 0
KCO1 050930Z 25007KT 12/M08 A3007 RMK A01 T01171076  RH  025%=      5-min Rain = 0
KCO1 050931Z 26007KT 12/M08 A3007 RMK A01 T01161077  RH  025%=      5-min Rain = 0
KCO1 050932Z 26007KT 12/M08 A3007 RMK A01 T01161077  RH  025%=      5-min Rain = 0
KCO1 050933Z 25007KT 12/M08 A3007 RMK A01 T01161076  RH  025%=      5-min Rain = 0
KCO1 050934Z 26007KT 12/M08 A3007 RMK A01 T01171076  RH  025%=      5-min Rain = 0
KCO1 050935Z 26007KT 12/M08 A3007 RMK A01 T01171077  RH  025%=      5-min Rain = 0
KCO1 050936Z 26006KT 12/M08 A3007 RMK A01 T01161077  RH  025%=      5-min Rain = 0
KCO1 050937Z 26006KT 12/M08 A3007 RMK A01 T01151076  RH  025%=      5-min Rain = 0
KCO1 050938Z 26005KT 12/M08 A3006 RMK A01 T01161075  RH  026%=      5-min Rain = 0
KCO1 050939Z 25006KT 12/M07 A3006 RMK A01 T01171074  RH  025%=      5-min Rain = 0
KCO1 050940Z 25005KT 12/M08 A3006 RMK A01 T01171075  RH  025%=      5-min Rain = 0
KCO1 050941Z 25006KT 12/M08 A3006 RMK A01 T01151076  RH  025%=      5-min Rain = 0
KCO1 050942Z 25007KT 11/M08 A3006 RMK A01 T01141076  RH  026%=      5-min Rain = 0
KCO1 050943Z 25007KT 11/M08 A3007 RMK A01 T01121077  RH  026%=      5-min Rain = 0
KCO1 050944Z 25007KT 11/M08 A3007 RMK A01 T01091077  RH  026%=      5-min Rain = 0
KCO1 050945Z 25007KT 11/M08 A3007 RMK A01 T01081077  RH  027%=      5-min Rain = 0
KCO1 050946Z 26008KT 11/M08 A3007 RMK A01 T01071077  RH  027%=      5-min Rain = 0
KCO1 050947Z 26007KT 11/M08 A3007 RMK A01 T01061076  RH  027%=      5-min Rain = 0
KCO1 050948Z 26007KT 11/M08 A3007 RMK A01 T01051076  RH  027%=      5-min Rain = 0
KCO1 050949Z 26007KT 11/M08 A3007 RMK A01 T01051075  RH  027%=      5-min Rain = 0
KCO1 050950Z 26006KT 11/M07 A3007 RMK A01 T01071074  RH  027%=      5-min Rain = 0
KCO1 050951Z 26007KT 11/M07 A3007 RMK A01 T01091073  RH  027%=      5-min Rain = 0
KCO1 050952Z 26006KT 11/M07 A3007 RMK A01 T01101073  RH  027%=      5-min Rain = 0
KCO1 050953Z 26007KT 11/M07 A3007 RMK A01 T01091074  RH  027%=      5-min Rain = 0
KCO1 050954Z 26006KT 11/M07 A3007 RMK A01 T01091074  RH  027%=      5-min Rain = 0
KCO1 050955Z 26006KT 11/M07 A3007 RMK A01 T01081073  RH  027%=      5-min Rain = 0
KCO1 050956Z 26006KT 11/M07 A3007 RMK A01 T01081073  RH  027%=      5-min Rain = 0
KCO1 050957Z 26007KT 11/M07 A3007 RMK A01 T01081073  RH  027%=      5-min Rain = 0
KCO1 050958Z 26008KT 11/M07 A3007 RMK A01 T01081072  RH  028%=      5-min Rain = 0
KCO1 050959Z 26007KT 11/M07 A3007 RMK A01 T01111070  RH  027%=      5-min Rain = 0
KCO1 051000Z 26007KT 11/M07 A3007 RMK A01 T01121071  RH  027%=      5-min Rain = 0
KCO1 051001Z 27008KT 11/M07 A3007 RMK A01 T01121071  RH  027%=      5-min Rain = 0
KCO1 051002Z 27008KT 11/M07 A3007 RMK A01 T01121070  RH  027%=      5-min Rain = 0
KCO1 051003Z 27007KT 11/M07 A3007 RMK A01 T01121070  RH  027%=      5-min Rain = 0
KCO1 051004Z 27007KT 11/M07 A3007 RMK A01 T01111070  RH  027%=      5-min Rain = 0
KCO1 051005Z 27007KT 11/M07 A3007 RMK A01 T01101070  RH  028%=      5-min Rain = 0
KCO1 051006Z 27008KT 11/M07 A3007 RMK A01 T01091069  RH  028%=      5-min Rain = 0
KCO1 051007Z 27008KT 11/M07 A3008 RMK A01 T01091069  RH  028%=      5-min Rain = 0
KCO1 051008Z 27007KT 11/M07 A3008 RMK A01 T01091069  RH  028%=      5-min Rain = 0
KCO1 051009Z 27008KT 11/M07 A3008 RMK A01 T01081069  RH  028%=      5-min Rain = 0
KCO1 051010Z 27008KT 11/M07 A3008 RMK A01 T01081068  RH  028%=      5-min Rain = 0
KCO1 051011Z 27007KT 11/M07 A3008 RMK A01 T01071069  RH  028%=      5-min Rain = 0
KCO1 051012Z 27008KT 11/M07 A3008 RMK A01 T01061069  RH  029%=      5-min Rain = 0
KCO1 051013Z 27008KT 11/M07 A3008 RMK A01 T01061068  RH  029%=      5-min Rain = 0
KCO1 051014Z 27008KT 11/M07 A3008 RMK A01 T01051069  RH  029%=      5-min Rain = 0
KCO1 051015Z 27008KT 10/M07 A3008 RMK A01 T01041069  RH  029%=      5-min Rain = 0
KCO1 051016Z 27008KT 10/M07 A3008 RMK A01 T01031069  RH  029%=      5-min Rain = 0
KCO1 051017Z 27009KT 10/M07 A3008 RMK A01 T01031069  RH  029%=      5-min Rain = 0
KCO1 051018Z 27009KT 10/M07 A3008 RMK A01 T01021069  RH  029%=      5-min Rain = 0
KCO1 051019Z 27008KT 10/M07 A3008 RMK A01 T01021069  RH  029%=      5-min Rain = 0
KCO1 051020Z 27008KT 10/M07 A3008 RMK A01 T01021069  RH  029%=      5-min Rain = 0
KCO1 051021Z 27008KT 10/M07 A3008 RMK A01 T01011069  RH  029%=      5-min Rain = 0
KCO1 051022Z 27008KT 10/M07 A3008 RMK A01 T01011069  RH  029%=      5-min Rain = 0
KCO1 051023Z 27008KT 10/M07 A3008 RMK A01 T01001070  RH  030%=      5-min Rain = 0
KCO1 051024Z 27008KT 10/M07 A3008 RMK A01 T00991069  RH  030%=      5-min Rain = 0
KCO1 051025Z 27009KT 10/M07 A3008 RMK A01 T00991069  RH  030%=      5-min Rain = 0
KCO1 051026Z 27009KT 10/M07 A3008 RMK A01 T01001069  RH  030%=      5-min Rain = 0
KCO1 051027Z 27009KT 10/M07 A3008 RMK A01 T01011069  RH  030%=      5-min Rain = 0
KCO1 051028Z 27009KT 10/M07 A3008 RMK A01 T01021069  RH  029%=      5-min Rain = 0
KCO1 051029Z 27009KT 10/M07 A3008 RMK A01 T01031069  RH  029%=      5-min Rain = 0
KCO1 051030Z 26009KT 10/M07 A3008 RMK A01 T01031069  RH  029%=      5-min Rain = 0
KCO1 051031Z 26009KT 10/M07 A3008 RMK A01 T01041069  RH  029%=      5-min Rain = 0
KCO1 051032Z 26009KT 10/M07 A3008 RMK A01 T01041069  RH  029%=      5-min Rain = 0
KCO1 051033Z 27009KT 10/M07 A3008 RMK A01 T01041068  RH  029%=      5-min Rain = 0
KCO1 051034Z 27009KT 11/M07 A3008 RMK A01 T01051068  RH  029%=      5-min Rain = 0
KCO1 051035Z 27008KT 11/M07 A3008 RMK A01 T01051068  RH  029%=      5-min Rain = 0
KCO1 051036Z 26008KT 10/M07 A3008 RMK A01 T01041068  RH  029%=      5-min Rain = 0
KCO1 051037Z 26008KT 10/M07 A3008 RMK A01 T01041068  RH  029%=      5-min Rain = 0
KCO1 051038Z 26008KT 10/M07 A3008 RMK A01 T01041068  RH  029%=      5-min Rain = 0
KCO1 051039Z 26008KT 11/M07 A3008 RMK A01 T01051068  RH  029%=      5-min Rain = 0
KCO1 051040Z 26008KT 11/M07 A3008 RMK A01 T01071068  RH  029%=      5-min Rain = 0
KCO1 051041Z 26007KT 11/M07 A3008 RMK A01 T01091069  RH  028%=      5-min Rain = 0
KCO1 051042Z 25006KT 11/M07 A3008 RMK A01 T01101069  RH  028%=      5-min Rain = 0
KCO1 051043Z 25007KT 11/M07 A3009 RMK A01 T01101069  RH  028%=      5-min Rain = 0
KCO1 051044Z 25006KT 11/M07 A3009 RMK A01 T01091069  RH  028%=      5-min Rain = 0
KCO1 051045Z 25007KT 11/M07 A3009 RMK A01 T01071070  RH  028%=      5-min Rain = 0
KCO1 051046Z 25007KT 10/M07 A3009 RMK A01 T01041071  RH  029%=      5-min Rain = 0
KCO1 051047Z 25007KT 10/M07 A3009 RMK A01 T01021071  RH  029%=      5-min Rain = 0
KCO1 051048Z 25007KT 10/M07 A3009 RMK A01 T01011071  RH  029%=      5-min Rain = 0
KCO1 051049Z 25008KT 10/M07 A3009 RMK A01 T00991071  RH  029%=      5-min Rain = 0
KCO1 051050Z 26007KT 10/M07 A3009 RMK A01 T00981071  RH  030%=      5-min Rain = 0
KCO1 051051Z 25007KT 10/M07 A3009 RMK A01 T00981070  RH  030%=      5-min Rain = 0
KCO1 051052Z 25007KT 10/M07 A3009 RMK A01 T00971071  RH  030%=      5-min Rain = 0
KCO1 051053Z 25007KT 10/M07 A3009 RMK A01 T00961071  RH  030%=      5-min Rain = 0
KCO1 051054Z 25007KT 10/M07 A3009 RMK A01 T00951071  RH  030%=      5-min Rain = 0
KCO1 051055Z 26007KT 09/M07 A3009 RMK A01 T00941071  RH  031%=      5-min Rain = 0
KCO1 051056Z 26006KT 09/M07 A3009 RMK A01 T00931071  RH  031%=      5-min Rain = 0
KCO1 051057Z 26006KT 09/M07 A3009 RMK A01 T00931071  RH  031%=      5-min Rain = 0
KCO1 051058Z 26006KT 09/M07 A3009 RMK A01 T00931070  RH  031%=      5-min Rain = 0
KCO1 051059Z 27007KT 09/M07 A3009 RMK A01 T00931071  RH  031%=      5-min Rain = 0
KCO1 051100Z 26006KT 10/M07 A3009 RMK A01 T00951070  RH  031%=      5-min Rain = 0
KCO1 051101Z 26006KT 10/M07 A3009 RMK A01 T00961070  RH  030%=      5-min Rain = 0
KCO1 051102Z 26006KT 10/M07 A3009 RMK A01 T00971070  RH  030%=      5-min Rain = 0
KCO1 051103Z 26007KT 10/M07 A3009 RMK A01 T00971071  RH  030%=      5-min Rain = 0
KCO1 051104Z 26008KT 10/M07 A3009 RMK A01 T00971071  RH  030%=      5-min Rain = 0
KCO1 051105Z 26008KT 10/M07 A3009 RMK A01 T00971071  RH  030%=      5-min Rain = 0
KCO1 051106Z 27008KT 10/M07 A3009 RMK A01 T00961070  RH  030%=      5-min Rain = 0
KCO1 051107Z 27008KT 10/M07 A301 RMK A01 T00961070  RH  030%=      5-min Rain = 0
KCO1 051108Z 27008KT 10/M07 A301 RMK A01 T00951070  RH  031%=      5-min Rain = 0
KCO1 051109Z 27007KT 09/M07 A301 RMK A01 T00941070  RH  031%=      5-min Rain = 0
KCO1 051110Z 27006KT 09/M07 A301 RMK A01 T00931070  RH  031%=      5-min Rain = 0
KCO1 051111Z 27006KT 09/M07 A301 RMK A01 T00921070  RH  031%=      5-min Rain = 0
KCO1 051112Z 27007KT 09/M07 A301 RMK A01 T00901070  RH  032%=      5-min Rain = 0
KCO1 051113Z 27007KT 09/M07 A301 RMK A01 T00891070  RH  032%=      5-min Rain = 0
KCO1 051114Z 26007KT 09/M07 A3009 RMK A01 T00891070  RH  032%=      5-min Rain = 0
KCO1 051115Z 26007KT 09/M07 A3009 RMK A01 T00881069  RH  032%=      5-min Rain = 0
KCO1 051116Z 26006KT 09/M07 A3009 RMK A01 T00891069  RH  032%=      5-min Rain = 0
KCO1 051117Z 26006KT 09/M07 A3009 RMK A01 T00901067  RH  032%=      5-min Rain = 0
KCO1 051118Z 26007KT 09/M07 A3009 RMK A01 T00931067  RH  032%=      5-min Rain = 0
KCO1 051119Z 27006KT 10/M07 A3009 RMK A01 T00951066  RH  032%=      5-min Rain = 0
KCO1 051120Z 27007KT 10/M07 A3009 RMK A01 T00961066  RH  031%=      5-min Rain = 0
KCO1 051121Z 26007KT 10/M07 A3009 RMK A01 T00961066  RH  031%=      5-min Rain = 0
KCO1 051122Z 27007KT 10/M07 A3009 RMK A01 T00951067  RH  031%=      5-min Rain = 0
KCO1 051123Z 27008KT 09/M07 A3009 RMK A01 T00941067  RH  031%=      5-min Rain = 0
KCO1 051124Z 27007KT 09/M07 A3009 RMK A01 T00941066  RH  032%=      5-min Rain = 0
KCO1 051125Z 28007KT 09/M07 A3009 RMK A01 T00931067  RH  032%=      5-min Rain = 0
KCO1 051126Z 28007KT 09/M07 A3009 RMK A01 T00901067  RH  032%=      5-min Rain = 0
KCO1 051127Z 28008KT 09/M07 A3009 RMK A01 T00891066  RH  033%=      5-min Rain = 0
KCO1 051128Z 28007KT 09/M07 A3009 RMK A01 T00881066  RH  033%=      5-min Rain = 0
KCO1 051129Z 28007KT 09/M07 A3009 RMK A01 T00891065  RH  033%=      5-min Rain = 0
KCO1 051130Z 28006KT 09/M07 A3009 RMK A01 T00891065  RH  033%=      5-min Rain = 0
KCO1 051131Z 28007KT 09/M07 A3009 RMK A01 T00881066  RH  033%=      5-min Rain = 0
KCO1 051132Z 27007KT 09/M07 A3009 RMK A01 T00871066  RH  033%=      5-min Rain = 0
KCO1 051133Z 28007KT 09/M07 A3009 RMK A01 T00871065  RH  034%=      5-min Rain = 0
KCO1 051134Z 28008KT 09/M07 A3009 RMK A01 T00861065  RH  034%=      5-min Rain = 0
KCO1 051135Z 28008KT 09/M06 A3009 RMK A01 T00851064  RH  034%=      5-min Rain = 0
KCO1 051136Z 29008KT 09/M06 A3009 RMK A01 T00861063  RH  034%=      5-min Rain = 0
KCO1 051137Z 29008KT 09/M06 A3009 RMK A01 T00861062  RH  034%=      5-min Rain = 0
KCO1 051138Z 29008KT 09/M06 A3009 RMK A01 T00881060  RH  034%=      5-min Rain = 0
KCO1 051139Z 29008KT 09/M06 A3009 RMK A01 T00901059  RH  034%=      5-min Rain = 0
KCO1 051140Z 29008KT 09/M06 A3009 RMK A01 T00911058  RH  034%=      5-min Rain = 0
KCO1 051141Z 29008KT 09/M06 A3009 RMK A01 T00931058  RH  034%=      5-min Rain = 0
KCO1 051142Z 29008KT 09/M06 A3009 RMK A01 T00941057  RH  034%=      5-min Rain = 0
KCO1 051143Z 29008KT 10/M06 A3009 RMK A01 T00951057  RH  034%=      5-min Rain = 0
KCO1 051144Z 29008KT 10/M06 A3009 RMK A01 T00951058  RH  034%=      5-min Rain = 0
KCO1 051145Z 29007KT 10/M06 A3009 RMK A01 T00951057  RH  034%=      5-min Rain = 0
KCO1 051146Z 29007KT 10/M06 A301 RMK A01 T00951057  RH  034%=      5-min Rain = 0
KCO1 051147Z 29008KT 10/M06 A3009 RMK A01 T00951057  RH  034%=      5-min Rain = 0
KCO1 051148Z 29008KT 10/M06 A301 RMK A01 T00951057  RH  034%=      5-min Rain = 0
KCO1 051149Z 29008KT 10/M06 A301 RMK A01 T00951057  RH  034%=      5-min Rain = 0
KCO1 051150Z 29007KT 10/M06 A301 RMK A01 T00951057  RH  034%=      5-min Rain = 0
KCO1 051151Z 29007KT 10/M06 A301 RMK A01 T00961056  RH  034%=      5-min Rain = 0
KCO1 051152Z 29007KT 10/M06 A301 RMK A01 T00961056  RH  034%=      5-min Rain = 0
KCO1 051153Z 29006KT 10/M06 A301 RMK A01 T00961056  RH  034%=      5-min Rain = 0
KCO1 051154Z 30007KT 10/M06 A301 RMK A01 T00961056  RH  034%=      5-min Rain = 0
KCO1 051155Z 30007KT 10/M06 A301 RMK A01 T00961056  RH  034%=      5-min Rain = 0
KCO1 051156Z 29008KT 10/M06 A301 RMK A01 T00961056  RH  034%=      5-min Rain = 0
KCO1 051157Z 29008KT 10/M06 A301 RMK A01 T00961055  RH  034%=      5-min Rain = 0
KCO1 051158Z 29009KT 10/M06 A301 RMK A01 T00961055  RH  034%=      5-min Rain = 0
KCO1 051159Z 30009KT 10/M06 A301 RMK A01 T00961055  RH  034%=      5-min Rain = 0
KCO1 051200Z 29009KT 10/M05 A301 RMK A01 T00971054  RH  034%=      5-min Rain = 0
KCO1 051201Z 29008KT 10/M05 A301 RMK A01 T00991053  RH  034%=      5-min Rain = 0
KCO1 051202Z 29008KT 10/M05 A301 RMK A01 T00991054  RH  034%=      5-min Rain = 0
KCO1 051203Z 29008KT 10/M05 A301 RMK A01 T00991054  RH  034%=      5-min Rain = 0
KCO1 051204Z 29008KT 10/M05 A301 RMK A01 T00991054  RH  034%=      5-min Rain = 0
KCO1 051205Z 29008KT 10/M05 A301 RMK A01 T00991054  RH  034%=      5-min Rain = 0
KCO1 051206Z 29009KT 10/M05 A301 RMK A01 T00991053  RH  034%=      5-min Rain = 0
KCO1 051207Z 29009KT 10/M05 A3011 RMK A01 T00991053  RH  034%=      5-min Rain = 0
KCO1 051208Z 29009KT 10/M05 A3011 RMK A01 T00991053  RH  034%=      5-min Rain = 0
KCO1 051209Z 30007KT 10/M05 A3011 RMK A01 T01001053  RH  034%=      5-min Rain = 0
KCO1 051210Z 30008KT 10/M05 A3011 RMK A01 T01001053  RH  034%=      5-min Rain = 0
KCO1 051211Z 30008KT 10/M05 A3011 RMK A01 T01001053  RH  034%=      5-min Rain = 0
KCO1 051212Z 30009KT 10/M05 A3011 RMK A01 T01001053  RH  034%=      5-min Rain = 0
KCO1 051213Z 30009KT 10/M05 A3011 RMK A01 T01001053  RH  034%=      5-min Rain = 0
KCO1 051214Z 30009KT 10/M05 A3011 RMK A01 T01001053  RH  034%=      5-min Rain = 0
KCO1 051215Z 29009KT 10/M05 A3011 RMK A01 T01001052  RH  034%=      5-min Rain = 0
KCO1 051216Z 30009KT 10/M05 A3011 RMK A01 T01001053  RH  034%=      5-min Rain = 0
KCO1 051217Z 30009KT 10/M05 A3011 RMK A01 T01001053  RH  034%=      5-min Rain = 0
KCO1 051218Z 30009KT 10/M05 A3011 RMK A01 T01011052  RH  034%=      5-min Rain = 0
KCO1 051219Z 30009KT 10/M05 A3011 RMK A01 T01021052  RH  034%=      5-min Rain = 0
KCO1 051220Z 30007KT 10/M05 A3011 RMK A01 T01021052  RH  033%=      5-min Rain = 0
KCO1 051221Z 31008KT 10/M05 A3011 RMK A01 T01021052  RH  033%=      5-min Rain = 0
KCO1 051222Z 30008KT 10/M05 A3011 RMK A01 T01021052  RH  033%=      5-min Rain = 0
KCO1 051223Z 30009KT 10/M05 A3011 RMK A01 T01011052  RH  034%=      5-min Rain = 0
KCO1 051224Z 30009KT 10/M05 A3011 RMK A01 T01011052  RH  034%=      5-min Rain = 0
KCO1 051225Z 29009KT 10/M05 A3011 RMK A01 T01001052  RH  034%=      5-min Rain = 0
KCO1 051226Z 29009KT 10/M05 A3011 RMK A01 T01001052  RH  034%=      5-min Rain = 0
KCO1 051227Z 29008KT 10/M05 A3011 RMK A01 T01001052  RH  034%=      5-min Rain = 0
KCO1 051228Z 30009KT 10/M05 A3011 RMK A01 T01001052  RH  034%=      5-min Rain = 0
KCO1 051229Z 29008KT 10/M05 A3011 RMK A01 T01001052  RH  034%=      5-min Rain = 0
KCO1 051230Z 29008KT 10/M05 A3011 RMK A01 T01001052  RH  034%=      5-min Rain = 0
KCO1 051231Z 30008KT 10/M05 A3011 RMK A01 T01001052  RH  034%=      5-min Rain = 0
KCO1 051232Z 30008KT 10/M05 A3011 RMK A01 T00991052  RH  034%=      5-min Rain = 0
KCO1 051233Z 30008KT 10/M05 A3011 RMK A01 T00991052  RH  034%=      5-min Rain = 0
KCO1 051234Z 30008KT 10/M05 A3011 RMK A01 T00991052  RH  034%=      5-min Rain = 0
KCO1 051235Z 30008KT 10/M05 A3011 RMK A01 T00991052  RH  034%=      5-min Rain = 0
KCO1 051236Z 30009KT 10/M05 A3011 RMK A01 T00991052  RH  034%=      5-min Rain = 0
KCO1 051237Z 31008KT 10/M05 A3012 RMK A01 T00991052  RH  034%=      5-min Rain = 0
KCO1 051238Z 31009KT 10/M05 A3012 RMK A01 T00991052  RH  034%=      5-min Rain = 0
KCO1 051239Z 30010KT 10/M05 A3012 RMK A01 T00991052  RH  034%=      5-min Rain = 0
KCO1 051240Z 31009KT 10/M05 A3012 RMK A01 T00991052  RH  034%=      5-min Rain = 0
KCO1 051241Z 30008KT 10/M05 A3012 RMK A01 T00991052  RH  034%=      5-min Rain = 0
KCO1 051242Z 30009KT 10/M05 A3012 RMK A01 T00991052  RH  034%=      5-min Rain = 0
KCO1 051243Z 30008KT 10/M05 A3012 RMK A01 T00991052  RH  034%=      5-min Rain = 0
KCO1 051244Z 30008KT 10/M05 A3012 RMK A01 T00991052  RH  034%=      5-min Rain = 0
KCO1 051245Z 30008KT 10/M05 A3012 RMK A01 T00991052  RH  034%=      5-min Rain = 0
KCO1 051246Z 30009KT 10/M05 A3012 RMK A01 T00991052  RH  034%=      5-min Rain = 0
KCO1 051247Z 30008KT 10/M05 A3012 RMK A01 T00991052  RH  034%=      5-min Rain = 0
KCO1 051248Z 31008KT 10/M05 A3013 RMK A01 T00991052  RH  034%=      5-min Rain = 0
KCO1 051249Z 31008KT 10/M05 A3013 RMK A01 T00991052  RH  034%=      5-min Rain = 0
KCO1 051250Z 30007KT 10/M05 A3013 RMK A01 T00991052  RH  034%=      5-min Rain = 0
KCO1 051251Z 31008KT 10/M05 A3013 RMK A01 T00981052  RH  034%=      5-min Rain = 0
KCO1 051252Z 31008KT 10/M05 A3013 RMK A01 T00981053  RH  034%=      5-min Rain = 0
KCO1 051253Z 31009KT 10/M05 A3013 RMK A01 T00981052  RH  034%=      5-min Rain = 0
KCO1 051254Z 31009KT 10/M05 A3013 RMK A01 T00981052  RH  034%=      5-min Rain = 0
KCO1 051255Z 31008KT 10/M05 A3013 RMK A01 T00981053  RH  034%=      5-min Rain = 0
KCO1 051256Z 30008KT 10/M05 A3013 RMK A01 T00981053  RH  034%=      5-min Rain = 0
KCO1 051257Z 31009KT 10/M05 A3013 RMK A01 T00981053  RH  034%=      5-min Rain = 0
KCO1 051258Z 31009KT 10/M05 A3013 RMK A01 T00981053  RH  034%=      5-min Rain = 0
KCO1 051259Z 30008KT 10/M05 A3013 RMK A01 T00981053  RH  034%=      5-min Rain = 0
KCO1 051300Z 31008KT 10/M05 A3013 RMK A01 T00971053  RH  034%=      5-min Rain = 0
KCO1 051301Z 30009KT 10/M05 A3013 RMK A01 T00971053  RH  034%=      5-min Rain = 0
KCO1 051302Z 31009KT 10/M05 A3013 RMK A01 T00961053  RH  034%=      5-min Rain = 0
KCO1 051303Z 31009KT 10/M05 A3013 RMK A01 T00961053  RH  034%=      5-min Rain = 0
KCO1 051304Z 31008KT 10/M05 A3013 RMK A01 T00961053  RH  034%=      5-min Rain = 0
KCO1 051305Z 31009KT 10/M05 A3013 RMK A01 T00961053  RH  035%=      5-min Rain = 0
KCO1 051306Z 31009KT 10/M05 A3013 RMK A01 T00951053  RH  035%=      5-min Rain = 0
KCO1 051307Z 31009KT 10/M05 A3013 RMK A01 T00951053  RH  035%=      5-min Rain = 0
KCO1 051308Z 31009KT 10/M05 A3014 RMK A01 T00951053  RH  035%=      5-min Rain = 0
KCO1 051309Z 30008KT 10/M05 A3014 RMK A01 T00951053  RH  035%=      5-min Rain = 0
KCO1 051310Z 30008KT 09/M05 A3014 RMK A01 T00941053  RH  035%=      5-min Rain = 0
KCO1 051311Z 30009KT 09/M05 A3014 RMK A01 T00941053  RH  035%=      5-min Rain = 0
KCO1 051312Z 30009KT 09/M05 A3014 RMK A01 T00931053  RH  035%=      5-min Rain = 0
KCO1 051313Z 30008KT 09/M05 A3014 RMK A01 T00931053  RH  035%=      5-min Rain = 0
KCO1 051314Z 30008KT 09/M05 A3014 RMK A01 T00921053  RH  035%=      5-min Rain = 0
KCO1 051315Z 30008KT 09/M05 A3014 RMK A01 T00921053  RH  035%=      5-min Rain = 0
KCO1 051316Z 30007KT 09/M05 A3014 RMK A01 T00911053  RH  036%=      5-min Rain = 0
KCO1 051317Z 30008KT 09/M05 A3014 RMK A01 T00911053  RH  036%=      5-min Rain = 0
KCO1 051318Z 30007KT 09/M05 A3014 RMK A01 T00911053  RH  036%=      5-min Rain = 0
KCO1 051319Z 30006KT 09/M05 A3014 RMK A01 T00911053  RH  036%=      5-min Rain = 0
KCO1 051320Z 30007KT 09/M05 A3014 RMK A01 T00901053  RH  036%=      5-min Rain = 0
KCO1 051321Z 30006KT 09/M05 A3014 RMK A01 T00911053  RH  036%=      5-min Rain = 0
KCO1 051322Z 30006KT 09/M05 A3014 RMK A01 T00911053  RH  036%=      5-min Rain = 0
KCO1 051323Z 30006KT 09/M05 A3015 RMK A01 T00901053  RH  036%=      5-min Rain = 0
KCO1 051324Z 30006KT 09/M05 A3015 RMK A01 T00901053  RH  036%=      5-min Rain = 0
KCO1 051325Z 30005KT 09/M05 A3015 RMK A01 T00891053  RH  036%=      5-min Rain = 0
KCO1 051326Z 31006KT 09/M05 A3015 RMK A01 T00881053  RH  036%=      5-min Rain = 0
KCO1 051327Z 30007KT 09/M05 A3015 RMK A01 T00881053  RH  036%=      5-min Rain = 0
KCO1 051328Z 31007KT 09/M05 A3015 RMK A01 T00881053  RH  037%=      5-min Rain = 0
KCO1 051329Z 31007KT 09/M05 A3015 RMK A01 T00881053  RH  037%=      5-min Rain = 0
KCO1 051330Z 31006KT 09/M05 A3015 RMK A01 T00881053  RH  037%=      5-min Rain = 0
KCO1 051331Z 31007KT 09/M05 A3015 RMK A01 T00881053  RH  037%=      5-min Rain = 0
KCO1 051332Z 31007KT 09/M05 A3015 RMK A01 T00871053  RH  037%=      5-min Rain = 0
KCO1 051333Z 30007KT 09/M05 A3015 RMK A01 T00881053  RH  037%=      5-min Rain = 0
KCO1 051334Z 30008KT 09/M05 A3015 RMK A01 T00881052  RH  037%=      5-min Rain = 0
KCO1 051335Z 31008KT 09/M05 A3015 RMK A01 T00891052  RH  036%=      5-min Rain = 0
KCO1 051336Z 31007KT 09/M05 A3015 RMK A01 T00891053  RH  036%=      5-min Rain = 0
KCO1 051337Z 31007KT 09/M05 A3015 RMK A01 T00891052  RH  036%=      5-min Rain = 0
KCO1 051338Z 31008KT 09/M05 A3015 RMK A01 T00901052  RH  036%=      5-min Rain = 0
KCO1 051339Z 31008KT 09/M05 A3015 RMK A01 T00921051  RH  036%=      5-min Rain = 0
KCO1 051340Z 31008KT 09/M05 A3015 RMK A01 T00921052  RH  036%=      5-min Rain = 0
KCO1 051341Z 31008KT 09/M05 A3015 RMK A01 T00931052  RH  036%=      5-min Rain = 0
KCO1 051342Z 31008KT 09/M05 A3015 RMK A01 T00931052  RH  036%=      5-min Rain = 0
KCO1 051343Z 31008KT 09/M05 A3015 RMK A01 T00941051  RH  036%=      5-min Rain = 0
KCO1 051344Z 30008KT 09/M05 A3016 RMK A01 T00941051  RH  035%=      5-min Rain = 0
KCO1 051345Z 31008KT 09/M05 A3016 RMK A01 T00941051  RH  035%=      5-min Rain = 0
KCO1 051346Z 31009KT 09/M05 A3016 RMK A01 T00941051  RH  035%=      5-min Rain = 0
KCO1 051347Z 31008KT 10/M05 A3016 RMK A01 T00951051  RH  035%=      5-min Rain = 0
KCO1 051348Z 31008KT 10/M05 A3016 RMK A01 T00951051  RH  035%=      5-min Rain = 0
KCO1 051349Z 30007KT 10/M05 A3016 RMK A01 T00951051  RH  035%=      5-min Rain = 0
KCO1 051350Z 30007KT 09/M05 A3016 RMK A01 T00941051  RH  035%=      5-min Rain = 0
KCO1 051351Z 30008KT 09/M05 A3016 RMK A01 T00941051  RH  036%=      5-min Rain = 0
KCO1 051352Z 30008KT 09/M05 A3016 RMK A01 T00941051  RH  036%=      5-min Rain = 0
KCO1 051353Z 30008KT 10/M05 A3016 RMK A01 T00951051  RH  036%=      5-min Rain = 0
KCO1 051354Z 30008KT 10/M05 A3016 RMK A01 T00951050  RH  035%=      5-min Rain = 0
KCO1 051355Z 30008KT 10/M05 A3016 RMK A01 T00951051  RH  035%=      5-min Rain = 0
KCO1 051356Z 30007KT 10/M05 A3016 RMK A01 T00961050  RH  035%=      5-min Rain = 0
KCO1 051357Z 30008KT 10/M05 A3016 RMK A01 T00961050  RH  035%=      5-min Rain = 0
KCO1 051358Z 30007KT 10/M05 A3016 RMK A01 T00971050  RH  035%=      5-min Rain = 0
KCO1 051359Z 30007KT 10/M05 A3016 RMK A01 T00981049  RH  035%=      5-min Rain = 0
KCO1 051400Z 29008KT 10/M05 A3016 RMK A01 T00991049  RH  035%=      5-min Rain = 0
KCO1 051401Z 30008KT 10/M05 A3016 RMK A01 T01001049  RH  035%=      5-min Rain = 0
KCO1 051402Z 29007KT 10/M05 A3016 RMK A01 T01011049  RH  035%=      5-min Rain = 0
KCO1 051403Z 29007KT 10/M05 A3017 RMK A01 T01021048  RH  034%=      5-min Rain = 0
KCO1 051404Z 29006KT 10/M05 A3017 RMK A01 T01031048  RH  034%=      5-min Rain = 0
KCO1 051405Z 30008KT 10/M05 A3017 RMK A01 T01041048  RH  034%=      5-min Rain = 0
KCO1 051406Z 30008KT 11/M05 A3017 RMK A01 T01061048  RH  034%=      5-min Rain = 0
KCO1 051407Z 30009KT 11/M05 A3017 RMK A01 T01081048  RH  033%=      5-min Rain = 0
KCO1 051408Z 30008KT 11/M05 A3017 RMK A01 T01091048  RH  033%=      5-min Rain = 0
KCO1 051409Z 30007KT 11/M05 A3017 RMK A01 T01101047  RH  033%=      5-min Rain = 0
KCO1 051410Z 29007KT 11/M05 A3017 RMK A01 T01121047  RH  033%=      5-min Rain = 0
KCO1 051411Z 29007KT 11/M05 A3017 RMK A01 T01121047  RH  032%=      5-min Rain = 0
KCO1 051412Z 29008KT 11/M05 A3017 RMK A01 T01131047  RH  032%=      5-min Rain = 0
KCO1 051413Z 29007KT 11/M05 A3017 RMK A01 T01141047  RH  032%=      5-min Rain = 0
KCO1 051414Z 29010KT 12/M05 A3017 RMK A01 T01151047  RH  032%=      5-min Rain = 0
KCO1 051415Z 30008KT 12/M05 A3017 RMK A01 T01161047  RH  032%=      5-min Rain = 0
KCO1 051416Z 30009KT 12/M05 A3017 RMK A01 T01171046  RH  032%=      5-min Rain = 0
KCO1 051417Z 29008KT 12/M05 A3017 RMK A01 T01171047  RH  031%=      5-min Rain = 0
KCO1 051418Z 29009KT 12/M05 A3017 RMK A01 T01181046  RH  031%=      5-min Rain = 0
KCO1 051419Z 29010KT 12/M05 A3017 RMK A01 T01191046  RH  031%=      5-min Rain = 0
KCO1 051420Z 30008KT 12/M05 A3017 RMK A01 T01201046  RH  031%=      5-min Rain = 0
KCO1 051421Z 30009KT 12/M05 A3017 RMK A01 T01201046  RH  031%=      5-min Rain = 0
KCO1 051422Z 30009KT 12/M05 A3017 RMK A01 T01211046  RH  031%=      5-min Rain = 0
KCO1 051423Z 30010KT 12/M05 A3017 RMK A01 T01211046  RH  031%=      5-min Rain = 0
KCO1 051424Z 30010KT 12/M05 A3018 RMK A01 T01211046  RH  031%=      5-min Rain = 0
KCO1 051425Z 30010KT 12/M05 A3018 RMK A01 T01221046  RH  031%=      5-min Rain = 0
KCO1 051426Z 30010KT 12/M05 A3018 RMK A01 T01221046  RH  031%=      5-min Rain = 0
KCO1 051427Z 30011KT 12/M05 A3018 RMK A01 T01221046  RH  030%=      5-min Rain = 0
KCO1 051428Z 30010KT 12/M05 A3018 RMK A01 T01231046  RH  030%=      5-min Rain = 0
KCO1 051429Z 30009KT 12/M05 A3018 RMK A01 T01231045  RH  031%=      5-min Rain = 0
KCO1 051430Z 29008KT 12/M05 A3018 RMK A01 T01231046  RH  030%=      5-min Rain = 0
KCO1 051431Z 29011KT 12/M05 A3018 RMK A01 T01241045  RH  030%=      5-min Rain = 0
KCO1 051432Z 30011KT 13/M05 A3018 RMK A01 T01251045  RH  030%=      5-min Rain = 0
KCO1 051433Z 30011KT 13/M05 A3018 RMK A01 T01251046  RH  030%=      5-min Rain = 0
KCO1 051434Z 30009KT 13/M05 A3018 RMK A01 T01251046  RH  030%=      5-min Rain = 0
KCO1 051435Z 30011KT 13/M05 A3018 RMK A01 T01251045  RH  030%=      5-min Rain = 0
KCO1 051436Z 30011KT 13/M05 A3018 RMK A01 T01251046  RH  030%=      5-min Rain = 0
KCO1 051437Z 31011KT 13/M05 A3018 RMK A01 T01251046  RH  030%=      5-min Rain = 0
KCO1 051438Z 30010KT 12/M05 A3018 RMK A01 T01241046  RH  030%=      5-min Rain = 0
KCO1 051439Z 30011KT 13/M05 A3018 RMK A01 T01251046  RH  030%=      5-min Rain = 0
KCO1 051440Z 30012KT 13/M05 A3018 RMK A01 T01251046  RH  030%=      5-min Rain = 0
KCO1 051441Z 29012KT 13/M05 A3018 RMK A01 T01251046  RH  030%=      5-min Rain = 0
KCO1 051442Z 30012KT 13/M05 A3019 RMK A01 T01251046  RH  030%=      5-min Rain = 0
KCO1 051443Z 31010KT 13/M05 A3019 RMK A01 T01261045  RH  030%=      5-min Rain = 0
KCO1 051444Z 30009KT 13/M04 A3019 RMK A01 T01271044  RH  030%=      5-min Rain = 0
KCO1 051445Z 30010KT 13/M04 A3019 RMK A01 T01281044  RH  030%=      5-min Rain = 0
KCO1 051446Z 31010KT 13/M05 A3019 RMK A01 T01281045  RH  030%=      5-min Rain = 0
KCO1 051447Z 31009KT 13/M04 A3019 RMK A01 T01291044  RH  030%=      5-min Rain = 0
KCO1 051448Z 31011KT 13/M04 A3019 RMK A01 T01291044  RH  030%=      5-min Rain = 0
KCO1 051449Z 31009KT 13/M05 A3019 RMK A01 T01281045  RH  030%=      5-min Rain = 0
KCO1 051450Z 30011KT 13/M04 A3019 RMK A01 T01291044  RH  030%=      5-min Rain = 0
KCO1 051451Z 30014KT 13/M05 A3019 RMK A01 T01291045  RH  030%=      5-min Rain = 0
KCO1 051452Z 31011KT 13/M05 A3019 RMK A01 T01291045  RH  029%=      5-min Rain = 0
KCO1 051453Z 31010KT 13/M05 A3019 RMK A01 T01281045  RH  030%=      5-min Rain = 0
KCO1 051454Z 31010KT 13/M05 A3019 RMK A01 T01281045  RH  030%=      5-min Rain = 0
KCO1 051455Z 31011KT 13/M04 A3019 RMK A01 T01291044  RH  030%=      5-min Rain = 0
KCO1 051456Z 31011KT 13/M04 A3019 RMK A01 T01301044  RH  030%=      5-min Rain = 0
KCO1 051457Z 30010KT 13/M04 A3019 RMK A01 T01301044  RH  029%=      5-min Rain = 0
KCO1 051458Z 31011KT 13/M04 A3019 RMK A01 T01301044  RH  030%=      5-min Rain = 0
KCO1 051459Z 32011KT 13/M04 A3019 RMK A01 T01301043  RH  030%=      5-min Rain = 0
KCO1 051500Z 33012KT 13/M04 A3019 RMK A01 T01321041  RH  030%=      5-min Rain = 0
KCO1 051501Z 32011KT 13/M04 A3019 RMK A01 T01321042  RH  029%=      5-min Rain = 0
KCO1 051502Z 32014KT 13/M04 A3019 RMK A01 T01331041  RH  030%=      5-min Rain = 0
KCO1 051503Z 33013KT 13/M04 A3019 RMK A01 T01341040  RH  030%=      5-min Rain = 0
KCO1 051504Z 33016KT 14/M04 A3019 RMK A01 T01361038  RH  030%=      5-min Rain = 0
KCO1 051505Z 33013KT 14/M04 A3019 RMK A01 T01371036  RH  030%=      5-min Rain = 0
KCO1 051506Z 33013KT 14/M04 A3019 RMK A01 T01391035  RH  030%=      5-min Rain = 0
KCO1 051507Z 33016KT 14/M03 A3019 RMK A01 T01401034  RH  030%=      5-min Rain = 0
KCO1 051508Z 33018KT 14/M03 A3019 RMK A01 T01411033  RH  030%=      5-min Rain = 0
KCO1 051509Z 33016KT 14/M03 A3019 RMK A01 T01421032  RH  030%=      5-min Rain = 0
KCO1 051510Z 33018KT 14/M03 A3019 RMK A01 T01421032  RH  030%=      5-min Rain = 0
KCO1 051511Z 34018KT 14/M03 A3019 RMK A01 T01421031  RH  030%=      5-min Rain = 0
KCO1 051512Z 33013KT 14/M03 A3019 RMK A01 T01421031  RH  030%=      5-min Rain = 0
KCO1 051513Z 33017KT 14/M03 A3019 RMK A01 T01431030  RH  030%=      5-min Rain = 0
KCO1 051514Z 33016KT 14/M03 A3019 RMK A01 T01431030  RH  030%=      5-min Rain = 0
KCO1 051515Z 33017KT 14/M03 A3019 RMK A01 T01431031  RH  030%=      5-min Rain = 0
KCO1 051516Z 33017KT 14/M03 A3019 RMK A01 T01431031  RH  030%=      5-min Rain = 0
KCO1 051517Z 33018KT 14/M03 A3019 RMK A01 T01431030  RH  030%=      5-min Rain = 0
KCO1 051518Z 32020KT 14/M03 A3019 RMK A01 T01441028  RH  030%=      5-min Rain = 0
KCO1 051519Z 33015KT 14/M03 A3019 RMK A01 T01441027  RH  030%=      5-min Rain = 0
KCO1 051520Z 33014KT 15/M03 A3019 RMK A01 T01451027  RH  030%=      5-min Rain = 0
KCO1 051521Z 33015KT 15/M03 A302 RMK A01 T01471027  RH  030%=      5-min Rain = 0
KCO1 051522Z 33017KT 15/M03 A302 RMK A01 T01471027  RH  030%=      5-min Rain = 0
KCO1 051523Z 33015KT 15/M03 A302 RMK A01 T01481027  RH  030%=      5-min Rain = 0
KCO1 051524Z 34012KT 15/M03 A302 RMK A01 T01481027  RH  030%=      5-min Rain = 0
KCO1 051525Z 34017KT 15/M03 A302 RMK A01 T01491027  RH  030%=      5-min Rain = 0
KCO1 051526Z 34017KT 15/M03 A302 RMK A01 T01481027  RH  030%=      5-min Rain = 0
KCO1 051527Z 33017KT 15/M03 A302 RMK A01 T01481026  RH  030%=      5-min Rain = 0
KCO1 051528Z 33017KT 15/M03 A302 RMK A01 T01481026  RH  030%=      5-min Rain = 0
KCO1 051529Z 33016KT 15/M03 A302 RMK A01 T01481025  RH  030%=      5-min Rain = 0
KCO1 051530Z 35018KT 15/M03 A302 RMK A01 T01491025  RH  030%=      5-min Rain = 0
KCO1 051531Z 35020KT 15/M02 A302 RMK A01 T01501024  RH  030%=      5-min Rain = 0
KCO1 051532Z 35020KT 15/M02 A302 RMK A01 T01501024  RH  030%=      5-min Rain = 0
KCO1 051533Z 33019KT 15/M02 A302 RMK A01 T01501024  RH  030%=      5-min Rain = 0
KCO1 051534Z 33018G24KT 15/M02 A302 RMK A01 T01501024  RH  030%=      5-min Rain = 0
KCO1 051535Z 34017KT 15/M02 A302 RMK A01 T01491024  RH  030%=      5-min Rain = 0
KCO1 051536Z 33018KT 15/M02 A302 RMK A01 T01511022  RH  030%=      5-min Rain = 0
KCO1 051537Z 34018KT 15/M02 A302 RMK A01 T01521023  RH  030%=      5-min Rain = 0
KCO1 051538Z 34018KT 15/M02 A302 RMK A01 T01531021  RH  030%=      5-min Rain = 0
KCO1 051539Z 35023KT 15/M02 A302 RMK A01 T01541020  RH  030%=      5-min Rain = 0
KCO1 051540Z 34019G24KT 15/M02 A302 RMK A01 T01541019  RH  030%=      5-min Rain = 0
KCO1 051541Z 34021KT 16/M02 A302 RMK A01 T01561017  RH  030%=      5-min Rain = 0
KCO1 051542Z 34023G28KT 16/M02 A302 RMK A01 T01561018  RH  030%=      5-min Rain = 0
KCO1 051543Z 34021G26KT 16/M02 A302 RMK A01 T01561018  RH  030%=      5-min Rain = 0
KCO1 051544Z 34019KT 16/M02 A302 RMK A01 T01561018  RH  030%=      5-min Rain = 0
KCO1 051545Z 34024KT 16/M02 A302 RMK A01 T01581017  RH  030%=      5-min Rain = 0
KCO1 051546Z 33019KT 16/M02 A302 RMK A01 T01571018  RH  030%=      5-min Rain = 0
KCO1 051547Z 33019G25KT 16/M02 A302 RMK A01 T01571018  RH  030%=      5-min Rain = 0
KCO1 051548Z 33021KT 16/M02 A302 RMK A01 T01581017  RH  030%=      5-min Rain = 0
KCO1 051549Z 34023KT 16/M02 A302 RMK A01 T01591017  RH  030%=      5-min Rain = 0
KCO1 051550Z 34023KT 16/M02 A302 RMK A01 T01581017  RH  030%=      5-min Rain = 0
KCO1 051551Z 34023KT 16/M02 A302 RMK A01 T01581017  RH  030%=      5-min Rain = 0
KCO1 051552Z 34023G28KT 16/M02 A302 RMK A01 T01581017  RH  030%=      5-min Rain = 0
KCO1 051553Z 34023KT 16/M02 A302 RMK A01 T01581017  RH  030%=      5-min Rain = 0
KCO1 051554Z 34022KT 16/M02 A302 RMK A01 T01581017  RH  030%=      5-min Rain = 0
KCO1 051555Z 34023KT 16/M02 A302 RMK A01 T01591018  RH  030%=      5-min Rain = 0
KCO1 051556Z 34023KT 16/M02 A302 RMK A01 T01591018  RH  030%=      5-min Rain = 0
KCO1 051557Z 34021KT 16/M02 A302 RMK A01 T01591017  RH  030%=      5-min Rain = 0
KCO1 051558Z 34022G28KT 16/M02 A302 RMK A01 T01591017  RH  030%=      5-min Rain = 0
KCO1 051559Z 34023KT 16/M02 A302 RMK A01 T01591016  RH  030%=      5-min Rain = 0
KCO1 051600Z 34023KT 16/M02 A302 RMK A01 T01591017  RH  030%=      5-min Rain = 0
KCO1 051601Z 35020KT 16/M02 A302 RMK A01 T01591017  RH  030%=      5-min Rain = 0
KCO1 051602Z 35022KT 16/M02 A302 RMK A01 T01601016  RH  030%=      5-min Rain = 0
KCO1 051603Z 35023G28KT 16/M02 A302 RMK A01 T01601016  RH  030%=      5-min Rain = 0
KCO1 051604Z 35021G26KT 16/M02 A3021 RMK A01 T01601016  RH  030%=      5-min Rain = 0
KCO1 051605Z 35022G27KT 16/M02 A302 RMK A01 T01601016  RH  030%=      5-min Rain = 0
KCO1 051606Z 35022KT 16/M02 A302 RMK A01 T01601017  RH  030%=      5-min Rain = 0
KCO1 051607Z 35021G27KT 16/M02 A302 RMK A01 T01601017  RH  030%=      5-min Rain = 0
KCO1 051608Z 34020G25KT 16/M02 A302 RMK A01 T01601016  RH  030%=      5-min Rain = 0
KCO1 051609Z 35020KT 16/M02 A3021 RMK A01 T01611016  RH  030%=      5-min Rain = 0
KCO1 051610Z 35020KT 16/M02 A302 RMK A01 T01621016  RH  030%=      5-min Rain = 0
KCO1 051611Z 34019G24KT 16/M02 A302 RMK A01 T01621016  RH  029%=      5-min Rain = 0
KCO1 051612Z 34022KT 16/M02 A302 RMK A01 T01621016  RH  030%=      5-min Rain = 0
KCO1 051613Z 34024KT 16/M02 A302 RMK A01 T01621015  RH  030%=      5-min Rain = 0
KCO1 051614Z 34020G25KT 16/M02 A302 RMK A01 T01621015  RH  030%=      5-min Rain = 0
KCO1 051615Z 35021KT 16/M02 A302 RMK A01 T01611016  RH  030%=      5-min Rain = 0
KCO1 051616Z 34021KT 16/M02 A302 RMK A01 T01621015  RH  030%=      5-min Rain = 0
KCO1 051617Z 34020KT 16/M02 A302 RMK A01 T01621015  RH  030%=      5-min Rain = 0
KCO1 051618Z 34018KT 16/M01 A302 RMK A01 T01621014  RH  030%=      5-min Rain = 0
KCO1 051619Z 33015G22KT 16/M01 A302 RMK A01 T01631013  RH  030%=      5-min Rain = 0
KCO1 051620Z 33020KT 17/M01 A302 RMK A01 T01651013  RH  030%=      5-min Rain = 0
KCO1 051621Z 33019KT 16/M02 A302 RMK A01 T01631015  RH  029%=      5-min Rain = 0
KCO1 051622Z 34019KT 16/M02 A302 RMK A01 T01631015  RH  030%=      5-min Rain = 0
KCO1 051623Z 33016G21KT 16/M02 A302 RMK A01 T01621016  RH  030%=      5-min Rain = 0
KCO1 051624Z 33016KT 16/M01 A302 RMK A01 T01631013  RH  030%=      5-min Rain = 0
KCO1 051625Z 33018KT 16/M01 A302 RMK A01 T01641011  RH  030%=      5-min Rain = 0
KCO1 051626Z 33019KT 16/M01 A302 RMK A01 T01641009  RH  031%=      5-min Rain = 0
KCO1 051627Z 33025KT 16/M01 A3019 RMK A01 T01631009  RH  031%=      5-min Rain = 0
KCO1 051628Z 33019G24KT 16/M01 A302 RMK A01 T01621009  RH  031%=      5-min Rain = 0
KCO1 051629Z 33017KT 16/M01 A302 RMK A01 T01621008  RH  031%=      5-min Rain = 0
KCO1 051630Z 33022KT 17/M01 A302 RMK A01 T01651006  RH  031%=      5-min Rain = 0
KCO1 051631Z 33019KT 17/M01 A302 RMK A01 T01651007  RH  031%=      5-min Rain = 0
KCO1 051632Z 34019KT 17/M01 A302 RMK A01 T01661007  RH  031%=      5-min Rain = 0
KCO1 051633Z 34018KT 17/M01 A302 RMK A01 T01661008  RH  031%=      5-min Rain = 0
KCO1 051634Z 34019KT 17/M01 A302 RMK A01 T01661007  RH  031%=      5-min Rain = 0
KCO1 051635Z 34019KT 17/M01 A302 RMK A01 T01651008  RH  031%=      5-min Rain = 0
KCO1 051636Z 33021KT 17/M01 A302 RMK A01 T01651007  RH  031%=      5-min Rain = 0
KCO1 051637Z 33021KT 17/M01 A302 RMK A01 T01651008  RH  031%=      5-min Rain = 0
KCO1 051638Z 32019KT 16/M01 A302 RMK A01 T01641008  RH  031%=      5-min Rain = 0
KCO1 051639Z 33016KT 16/M01 A302 RMK A01 T01641007  RH  031%=      5-min Rain = 0
KCO1 051640Z 33019KT 16/M01 A302 RMK A01 T01641008  RH  031%=      5-min Rain = 0
KCO1 051641Z 34018KT 16/M01 A302 RMK A01 T01641007  RH  031%=      5-min Rain = 0
KCO1 051642Z 34019KT 17/M01 A302 RMK A01 T01651007  RH  031%=      5-min Rain = 0
KCO1 051643Z 33017G22KT 17/M01 A302 RMK A01 T01651005  RH  031%=      5-min Rain = 0
KCO1 051644Z 33019KT 17/M01 A302 RMK A01 T01681005  RH  031%=      5-min Rain = 0
KCO1 051645Z 33019KT 17/M01 A302 RMK A01 T01691005  RH  030%=      5-min Rain = 0
KCO1 051646Z 34017KT 17/M01 A302 RMK A01 T01681006  RH  030%=      5-min Rain = 0
KCO1 051647Z 35020G25KT 17/M01 A302 RMK A01 T01671006  RH  031%=      5-min Rain = 0
KCO1 051648Z 34019G25KT 17/M01 A302 RMK A01 T01671007  RH  030%=      5-min Rain = 0
KCO1 051649Z 35018KT 17/M01 A302 RMK A01 T01661007  RH  031%=      5-min Rain = 0
KCO1 051650Z 34019G24KT 17/M01 A302 RMK A01 T01661007  RH  031%=      5-min Rain = 0
KCO1 051651Z 33022KT 17/M01 A302 RMK A01 T01661007  RH  031%=      5-min Rain = 0
KCO1 051652Z 35018KT 17/M01 A302 RMK A01 T01661008  RH  031%=      5-min Rain = 0
KCO1 051653Z 34019KT 17/M01 A302 RMK A01 T01661007  RH  031%=      5-min Rain = 0
KCO1 051654Z 34019KT 17/M01 A302 RMK A01 T01671008  RH  030%=      5-min Rain = 0
KCO1 051655Z 34019G26KT 17/M01 A302 RMK A01 T01691008  RH  030%=      5-min Rain = 0
KCO1 051656Z 34021G26KT 17/M01 A302 RMK A01 T01691009  RH  030%=      5-min Rain = 0
KCO1 051657Z 34020G26KT 17/M01 A3021 RMK A01 T01681010  RH  030%=      5-min Rain = 0
KCO1 051658Z 34020KT 17/M01 A302 RMK A01 T01681010  RH  030%=      5-min Rain = 0
KCO1 051659Z 34017KT 17/M01 A3021 RMK A01 T01671011  RH  030%=      5-min Rain = 0
KCO1 051700Z 33016KT 17/M01 A302 RMK A01 T01671011  RH  030%=      5-min Rain = 0
KCO1 051701Z 34017KT 17/M01 A302 RMK A01 T01691009  RH  030%=      5-min Rain = 0
KCO1 051702Z 33018KT 17/M01 A302 RMK A01 T01721009  RH  029%=      5-min Rain = 0
KCO1 051703Z 35016KT 17/M01 A3021 RMK A01 T01701011  RH  029%=      5-min Rain = 0
KCO1 051704Z 33019G24KT 17/M01 A302 RMK A01 T01691011  RH  029%=      5-min Rain = 0
KCO1 051705Z 32017G22KT 17/M01 A302 RMK A01 T01691011  RH  029%=      5-min Rain = 0
KCO1 051706Z 33017KT 17/M01 A302 RMK A01 T01701010  RH  029%=      5-min Rain = 0
KCO1 051707Z 33019KT 17/M01 A302 RMK A01 T01711011  RH  029%=      5-min Rain = 0
KCO1 051708Z 33016KT 17/M01 A302 RMK A01 T01711010  RH  029%=      5-min Rain = 0
KCO1 051709Z 34020KT 17/M01 A302 RMK A01 T01741009  RH  029%=      5-min Rain = 0
KCO1 051710Z 33019KT 17/M01 A302 RMK A01 T01741010  RH  029%=      5-min Rain = 0
KCO1 051711Z 33019KT 17/M01 A302 RMK A01 T01731010  RH  029%=      5-min Rain = 0
KCO1 051712Z 34018KT 17/M01 A302 RMK A01 T01731009  RH  029%=      5-min Rain = 0
KCO1 051713Z 35017KT 17/M01 A302 RMK A01 T01741008  RH  029%=      5-min Rain = 0
KCO1 051714Z 35016KT 18/M01 A302 RMK A01 T01761008  RH  029%=      5-min Rain = 0
KCO1 051715Z 34019KT 17/M01 A302 RMK A01 T01741009  RH  029%=      5-min Rain = 0
KCO1 051716Z 34017KT 18/M01 A302 RMK A01 T01751008  RH  029%=      5-min Rain = 0
KCO1 051717Z 34018G23KT 18/M01 A302 RMK A01 T01751009  RH  029%=      5-min Rain = 0
KCO1 051718Z 34018KT 18/M01 A302 RMK A01 T01751009  RH  029%=      5-min Rain = 0
KCO1 051719Z 33015KT 18/M01 A302 RMK A01 T01751009  RH  029%=      5-min Rain = 0
KCO1 051720Z 34016KT 18/M01 A302 RMK A01 T01761008  RH  029%=      5-min Rain = 0
KCO1 051721Z 33012KT 18/M01 A302 RMK A01 T01771008  RH  029%=      5-min Rain = 0
KCO1 051722Z 32012KT 18/M01 A302 RMK A01 T01791006  RH  028%=      5-min Rain = 0
KCO1 051723Z 32016KT 18/M01 A302 RMK A01 T01821006  RH  028%=      5-min Rain = 0
KCO1 051724Z 32018G23KT 18/M01 A302 RMK A01 T01821007  RH  028%=      5-min Rain = 0
KCO1 051725Z 34021G26KT 18/M01 A302 RMK A01 T01801006  RH  028%=      5-min Rain = 0
KCO1 051726Z 34018KT 18/M01 A302 RMK A01 T01801006  RH  028%=      5-min Rain = 0
KCO1 051727Z 33017KT 18/M01 A302 RMK A01 T01801005  RH  028%=      5-min Rain = 0
KCO1 051728Z 34018G24KT 18/M01 A3021 RMK A01 T01811005  RH  028%=      5-min Rain = 0
KCO1 051729Z 34017KT 18/M01 A302 RMK A01 T01801005  RH  029%=      5-min Rain = 0
KCO1 051730Z 34015KT 18/M00 A302 RMK A01 T01781004  RH  029%=      5-min Rain = 0
KCO1 051731Z 33018G24KT 18/M00 A302 RMK A01 T01781004  RH  029%=      5-min Rain = 0
KCO1 051732Z 34019KT 18/M00 A302 RMK A01 T01801002  RH  029%=      5-min Rain = 0
KCO1 051733Z 34019KT 18/M00 A302 RMK A01 T01821003  RH  029%=      5-min Rain = 0
KCO1 051734Z 34022KT 18/M00 A302 RMK A01 T01821003  RH  029%=      5-min Rain = 0
KCO1 051735Z 34017KT 18/M00 A302 RMK A01 T01811003  RH  029%=      5-min Rain = 0
KCO1 051736Z 34019KT 18/M00 A302 RMK A01 T01821002  RH  029%=      5-min Rain = 0
KCO1 051737Z 35019KT 18/M00 A302 RMK A01 T01811002  RH  029%=      5-min Rain = 0
KCO1 051738Z 34016G21KT 18/M00 A302 RMK A01 T01801002  RH  029%=      5-min Rain = 0
KCO1 051739Z 34015KT 18/M00 A302 RMK A01 T01791001  RH  030%=      5-min Rain = 0
KCO1 051740Z 32015KT 18/00 A302 RMK A01 T01820001  RH  030%=      5-min Rain = 0
KCO1 051741Z 34018G27KT 19/00 A302 RMK A01 T01860002  RH  029%=      5-min Rain = 0
KCO1 051742Z 34020KT 19/00 A302 RMK A01 T01860001  RH  029%=      5-min Rain = 0
KCO1 051743Z 34017KT 18/00 A302 RMK A01 T018400-0  RH  029%=      5-min Rain = 0
KCO1 051744Z 33015KT 18/00 A302 RMK A01 T018200-0  RH  029%=      5-min Rain = 0
KCO1 051745Z 32016G22KT 18/00 A302 RMK A01 T01820001  RH  029%=      5-min Rain = 0
KCO1 051746Z 33018KT 18/00 A302 RMK A01 T01840001  RH  029%=      5-min Rain = 0
KCO1 051747Z 33020KT 19/00 A302 RMK A01 T01860001  RH  029%=      5-min Rain = 0
KCO1 051748Z 33022KT 18/00 A302 RMK A01 T018400-0  RH  029%=      5-min Rain = 0
KCO1 051749Z 34017KT 18/00 A302 RMK A01 T01830001  RH  029%=      5-min Rain = 0
KCO1 051750Z 33022KT 18/00 A302 RMK A01 T01830001  RH  029%=      5-min Rain = 0
KCO1 051751Z 33018G25KT 18/00 A302 RMK A01 T01830002  RH  029%=      5-min Rain = 0
KCO1 051752Z 33020KT 18/00 A302 RMK A01 T01840003  RH  030%=      5-min Rain = 0
KCO1 051753Z 32019KT 18/00 A302 RMK A01 T01830002  RH  029%=      5-min Rain = 0
KCO1 051754Z 31018KT 18/00 A302 RMK A01 T01830003  RH  030%=      5-min Rain = 0
KCO1 051755Z 33018G23KT 18/00 A302 RMK A01 T01830003  RH  030%=      5-min Rain = 0
KCO1 051756Z 33020KT 18/00 A302 RMK A01 T01820003  RH  030%=      5-min Rain = 0
KCO1 051757Z 32016KT 18/00 A302 RMK A01 T01820004  RH  030%=      5-min Rain = 0
KCO1 051758Z 32018KT 18/01 A302 RMK A01 T01820005  RH  030%=      5-min Rain = 0
KCO1 051759Z 34019KT 18/01 A302 RMK A01 T01840005  RH  030%=      5-min Rain = 0
KCO1 051800Z 34020G25KT 19/01 A302 RMK A01 T01860005  RH  030%=      5-min Rain = 0
KCO1 051801Z 32018KT 19/00 A302 RMK A01 T01850004  RH  030%=      5-min Rain = 0
KCO1 051802Z 33019KT 19/01 A302 RMK A01 T01850005  RH  030%=      5-min Rain = 0
KCO1 051803Z 32015G20KT 18/00 A302 RMK A01 T01840004  RH  030%=      5-min Rain = 0
KCO1 051804Z 34023KT 18/01 A302 RMK A01 T01840005  RH  030%=      5-min Rain = 0
KCO1 051805Z 35021KT 19/00 A302 RMK A01 T01850004  RH  029%=      5-min Rain = 0
KCO1 051806Z 34017G22KT 19/00 A302 RMK A01 T01850003  RH  029%=      5-min Rain = 0
KCO1 051807Z 35018G23KT 19/00 A302 RMK A01 T01850004  RH  030%=      5-min Rain = 0
KCO1 051808Z 34016G21KT 19/01 A302 RMK A01 T01860005  RH  029%=      5-min Rain = 0
KCO1 051809Z 33019G25KT 19/01 A302 RMK A01 T01870006  RH  030%=      5-min Rain = 0
KCO1 051810Z 33022KT 19/00 A302 RMK A01 T01880004  RH  029%=      5-min Rain = 0
KCO1 051811Z 33019KT 19/00 A302 RMK A01 T01850004  RH  029%=      5-min Rain = 0
KCO1 051812Z 36020KT 19/01 A302 RMK A01 T01860007  RH  030%=      5-min Rain = 0
KCO1 051813Z 35019G24KT 19/01 A302 RMK A01 T01860006  RH  030%=      5-min Rain = 0
KCO1 051814Z 35017G25KT 19/01 A302 RMK A01 T01860007  RH  030%=      5-min Rain = 0
KCO1 051815Z 33020KT 19/01 A302 RMK A01 T01870008  RH  030%=      5-min Rain = 0
KCO1 051816Z 33020KT 19/01 A302 RMK A01 T01870007  RH  030%=      5-min Rain = 0
KCO1 051817Z 33022G28KT 19/01 A302 RMK A01 T01850007  RH  030%=      5-min Rain = 0
KCO1 051818Z 34021G26KT 18/01 A302 RMK A01 T01840007  RH  031%=      5-min Rain = 0
KCO1 051819Z 33020G26KT 19/01 A302 RMK A01 T01860009  RH  030%=      5-min Rain = 0
KCO1 051820Z 34020KT 19/01 A302 RMK A01 T01880009  RH  030%=      5-min Rain = 0
KCO1 051821Z 35018KT 19/01 A302 RMK A01 T01870008  RH  030%=      5-min Rain = 0
KCO1 051822Z 34018G23KT 19/01 A302 RMK A01 T01860009  RH  030%=      5-min Rain = 0
KCO1 051823Z 35020G26KT 19/01 A302 RMK A01 T01870009  RH  030%=      5-min Rain = 0
KCO1 051824Z 35021KT 19/01 A302 RMK A01 T01860009  RH  030%=      5-min Rain = 0
KCO1 051825Z 34020KT 19/01 A302 RMK A01 T01860007  RH  030%=      5-min Rain = 0
KCO1 051826Z 34017G22KT 19/01 A302 RMK A01 T01850007  RH  030%=      5-min Rain = 0
KCO1 051827Z 33020KT 18/01 A302 RMK A01 T01840007  RH  030%=      5-min Rain = 0
KCO1 051828Z 33019KT 18/01 A302 RMK A01 T01840007  RH  030%=      5-min Rain = 0
KCO1 051829Z 35018G24KT 19/01 A302 RMK A01 T01850008  RH  031%=      5-min Rain = 0
KCO1 051830Z 34022G29KT 19/01 A302 RMK A01 T01880009  RH  030%=      5-min Rain = 0
KCO1 051831Z 34020KT 19/01 A302 RMK A01 T01880007  RH  030%=      5-min Rain = 0
KCO1 051832Z 34022G27KT 19/01 A302 RMK A01 T01860006  RH  030%=      5-min Rain = 0
KCO1 051833Z 35021KT 19/01 A302 RMK A01 T01850006  RH  030%=      5-min Rain = 0
KCO1 051834Z 34022KT 19/01 A302 RMK A01 T01850006  RH  030%=      5-min Rain = 0
KCO1 051835Z 34017KT 19/01 A302 RMK A01 T01860006  RH  030%=      5-min Rain = 0
KCO1 051836Z 35017G22KT 19/01 A302 RMK A01 T01860007  RH  030%=      5-min Rain = 0
KCO1 051837Z 35015KT 19/01 A302 RMK A01 T01880008  RH  030%=      5-min Rain = 0
KCO1 051838Z 34012KT 19/01 A302 RMK A01 T01860007  RH  030%=      5-min Rain = 0
KCO1 051839Z 36012KT 19/01 A302 RMK A01 T01880010  RH  030%=      5-min Rain = 0
KCO1 051840Z 34017KT 19/01 A302 RMK A01 T01910011  RH  030%=      5-min Rain = 0
KCO1 051841Z 34015KT 19/01 A302 RMK A01 T01910012  RH  030%=      5-min Rain = 0
KCO1 051842Z 33015G20KT 19/01 A302 RMK A01 T01940014  RH  030%=      5-min Rain = 0
KCO1 051843Z 35015KT 20/01 A302 RMK A01 T01960013  RH  030%=      5-min Rain = 0
KCO1 051844Z 33016KT 20/01 A302 RMK A01 T01950012  RH  029%=      5-min Rain = 0
KCO1 051845Z 33019G24KT 19/01 A302 RMK A01 T01930011  RH  030%=      5-min Rain = 0
KCO1 051846Z 34021G28KT 19/01 A302 RMK A01 T01920012  RH  030%=      5-min Rain = 0
KCO1 051847Z 34022KT 19/01 A302 RMK A01 T01900012  RH  030%=      5-min Rain = 0
KCO1 051848Z 33017G23KT 19/01 A302 RMK A01 T01890012  RH  030%=      5-min Rain = 0
KCO1 051849Z 35016KT 19/01 A302 RMK A01 T01880013  RH  031%=      5-min Rain = 0
KCO1 051850Z 35015G22KT 19/01 A302 RMK A01 T01900014  RH  031%=      5-min Rain = 0
KCO1 051851Z 34021G26KT 19/01 A302 RMK A01 T01910014  RH  031%=      5-min Rain = 0
KCO1 051852Z 33022G27KT 19/01 A3019 RMK A01 T01920013  RH  030%=      5-min Rain = 0
KCO1 051853Z 34025KT 19/01 A3019 RMK A01 T01910013  RH  030%=      5-min Rain = 0
KCO1 051854Z 35022KT 19/01 A302 RMK A01 T01910013  RH  030%=      5-min Rain = 0
KCO1 051855Z 35018KT 19/01 A302 RMK A01 T01900013  RH  030%=      5-min Rain = 0
KCO1 051856Z 35017KT 19/01 A302 RMK A01 T01920013  RH  030%=      5-min Rain = 0
KCO1 051857Z 35014KT 19/01 A302 RMK A01 T01920011  RH  030%=      5-min Rain = 0
KCO1 051858Z 35016KT 19/01 A302 RMK A01 T01900013  RH  031%=      5-min Rain = 0
KCO1 051859Z 34017G26KT 19/02 A3019 RMK A01 T01900015  RH  031%=      5-min Rain = 0
KCO1 051900Z 36020G26KT 19/02 A302 RMK A01 T01930015  RH  031%=      5-min Rain = 0
KCO1 051901Z 35020KT 19/01 A302 RMK A01 T01930014  RH  030%=      5-min Rain = 0
KCO1 051902Z 34018KT 19/01 A3019 RMK A01 T01910014  RH  031%=      5-min Rain = 0
KCO1 051903Z 34018KT 19/02 A3019 RMK A01 T01920016  RH  031%=      5-min Rain = 0
KCO1 051904Z 34020KT 19/01 A3019 RMK A01 T01930014  RH  030%=      5-min Rain = 0
KCO1 051905Z 35020KT 19/01 A3019 RMK A01 T01930014  RH  030%=      5-min Rain = 0
KCO1 051906Z 34019KT 19/01 A3019 RMK A01 T01930013  RH  030%=      5-min Rain = 0
KCO1 051907Z 34017G22KT 19/01 A3019 RMK A01 T01940013  RH  030%=      5-min Rain = 0
KCO1 051908Z 34019KT 19/01 A3019 RMK A01 T01930013  RH  030%=      5-min Rain = 0
KCO1 051909Z 36020G25KT 19/01 A302 RMK A01 T01930014  RH  030%=      5-min Rain = 0
KCO1 051910Z 36015KT 19/01 A302 RMK A01 T01940014  RH  030%=      5-min Rain = 0
KCO1 051911Z 36014KT 20/01 A302 RMK A01 T01950014  RH  030%=      5-min Rain = 0
KCO1 051912Z 35017G22KT 20/02 A3019 RMK A01 T01960015  RH  030%=      5-min Rain = 0
KCO1 051913Z 01016KT 20/01 A3019 RMK A01 T01960014  RH  030%=      5-min Rain = 0
KCO1 051914Z 35015KT 19/01 A3019 RMK A01 T01940014  RH  030%=      5-min Rain = 0
KCO1 051915Z 34020G27KT 20/02 A3019 RMK A01 T01960015  RH  030%=      5-min Rain = 0
KCO1 051916Z 35024KT 20/01 A3019 RMK A01 T01960013  RH  030%=      5-min Rain = 0
KCO1 051917Z 36023KT 20/01 A3019 RMK A01 T01950012  RH  029%=      5-min Rain = 0
KCO1 051918Z 36020G25KT 20/01 A3019 RMK A01 T01960013  RH  029%=      5-min Rain = 0
KCO1 051919Z 36019G26KT 20/01 A3019 RMK A01 T01970013  RH  029%=      5-min Rain = 0
KCO1 051920Z 36022KT 20/01 A3019 RMK A01 T01980013  RH  029%=      5-min Rain = 0
KCO1 051921Z 35017G22KT 20/01 A3019 RMK A01 T01970013  RH  029%=      5-min Rain = 0
KCO1 051922Z 34015G20KT 20/01 A3019 RMK A01 T01950013  RH  030%=      5-min Rain = 0
KCO1 051923Z 33018KT 20/01 A3019 RMK A01 T01950013  RH  030%=      5-min Rain = 0
KCO1 051924Z 34018G23KT 20/01 A3019 RMK A01 T01960014  RH  030%=      5-min Rain = 0
KCO1 051925Z 34015KT 20/01 A3019 RMK A01 T01990014  RH  029%=      5-min Rain = 0
KCO1 051926Z 32015KT 20/01 A3019 RMK A01 T02000014  RH  029%=      5-min Rain = 0
KCO1 051927Z 33014G19KT 20/02 A3019 RMK A01 T02010015  RH  029%=      5-min Rain = 0
KCO1 051928Z 33018KT 20/01 A3019 RMK A01 T02020014  RH  029%=      5-min Rain = 0
KCO1 051929Z 34014G19KT 20/01 A3019 RMK A01 T02000014  RH  029%=      5-min Rain = 0
KCO1 051930Z 35018G23KT 20/02 A3019 RMK A01 T02000016  RH  029%=      5-min Rain = 0
KCO1 051931Z 35018KT 20/02 A3019 RMK A01 T02010015  RH  029%=      5-min Rain = 0
KCO1 051932Z 35017KT 20/01 A3019 RMK A01 T01990013  RH  029%=      5-min Rain = 0
KCO1 051933Z 35021KT 20/01 A3019 RMK A01 T01980013  RH  029%=      5-min Rain = 0
KCO1 051934Z 34020KT 20/01 A3019 RMK A01 T01970013  RH  029%=      5-min Rain = 0
KCO1 051935Z 35019KT 20/02 A3019 RMK A01 T01980015  RH  030%=      5-min Rain = 0
KCO1 051936Z 34018KT 20/02 A3018 RMK A01 T01980015  RH  029%=      5-min Rain = 0
KCO1 051937Z 35016KT 20/01 A3018 RMK A01 T01970014  RH  030%=      5-min Rain = 0
KCO1 051938Z 35013G18KT 20/02 A3018 RMK A01 T01960015  RH  030%=      5-min Rain = 0
KCO1 051939Z 34016KT 20/02 A3018 RMK A01 T01980016  RH  030%=      5-min Rain = 0
KCO1 051940Z 34021KT 20/02 A3018 RMK A01 T02000015  RH  029%=      5-min Rain = 0
KCO1 051941Z 35023G28KT 20/02 A3018 RMK A01 T02000015  RH  029%=      5-min Rain = 0
KCO1 051942Z 34020KT 20/02 A3018 RMK A01 T02000015  RH  029%=      5-min Rain = 0
KCO1 051943Z 34017KT 20/01 A3018 RMK A01 T01970013  RH  029%=      5-min Rain = 0
KCO1 051944Z 35016KT 20/01 A3018 RMK A01 T01950014  RH  030%=      5-min Rain = 0
KCO1 051945Z 34017KT 20/02 A3018 RMK A01 T01960015  RH  030%=      5-min Rain = 0
KCO1 051946Z 01019KT 20/02 A3018 RMK A01 T01960015  RH  030%=      5-min Rain = 0
KCO1 051947Z 36022KT 20/02 A3018 RMK A01 T01990016  RH  030%=      5-min Rain = 0
KCO1 051948Z 35019KT 20/02 A3018 RMK A01 T01990015  RH  029%=      5-min Rain = 0
KCO1 051949Z 36020G25KT 20/02 A3018 RMK A01 T01980015  RH  029%=      5-min Rain = 0
KCO1 051950Z 00016KT 20/02 A3018 RMK A01 T01990015  RH  029%=      5-min Rain = 0
KCO1 051951Z 00013KT 20/02 A3018 RMK A01 T01990016  RH  029%=      5-min Rain = 0
KCO1 051952Z 35015G23KT 20/02 A3018 RMK A01 T02010015  RH  029%=      5-min Rain = 0
KCO1 051953Z 35021G26KT 20/02 A3018 RMK A01 T02020016  RH  029%=      5-min Rain = 0
KCO1 051954Z 35017G22KT 20/02 A3018 RMK A01 T02030016  RH  029%=      5-min Rain = 0
KCO1 051955Z 34017KT 20/02 A3018 RMK A01 T02020016  RH  029%=      5-min Rain = 0
KCO1 051956Z 33017KT 20/02 A3017 RMK A01 T02000016  RH  029%=      5-min Rain = 0
KCO1 051957Z 33017KT 20/02 A3017 RMK A01 T01990016  RH  030%=      5-min Rain = 0
KCO1 051958Z 33018G28KT 20/02 A3017 RMK A01 T01990018  RH  030%=      5-min Rain = 0
KCO1 051959Z 34023G30KT 20/02 A3017 RMK A01 T02020018  RH  029%=      5-min Rain = 0
KCO1 052000Z 35023KT 20/02 A3018 RMK A01 T02020016  RH  029%=      5-min Rain = 0
KCO1 052001Z 35016G21KT 20/02 A3018 RMK A01 T01980015  RH  029%=      5-min Rain = 0
KCO1 052002Z 34020KT 20/02 A3018 RMK A01 T01990018  RH  030%=      5-min Rain = 0
KCO1 052003Z 35020G26KT 20/02 A3018 RMK A01 T02020020  RH  030%=      5-min Rain = 0
KCO1 052004Z 34019KT 20/02 A3017 RMK A01 T02020019  RH  030%=      5-min Rain = 0
KCO1 052005Z 35020G27KT 20/02 A3018 RMK A01 T02000020  RH  030%=      5-min Rain = 0
KCO1 052006Z 34021KT 20/02 A3018 RMK A01 T02010020  RH  030%=      5-min Rain = 0
KCO1 052007Z 35021G26KT 20/02 A3018 RMK A01 T02000021  RH  030%=      5-min Rain = 0
KCO1 052008Z 36020KT 20/02 A3018 RMK A01 T01990020  RH  030%=      5-min Rain = 0
KCO1 052009Z 35019KT 20/02 A3017 RMK A01 T01980020  RH  031%=      5-min Rain = 0
KCO1 052010Z 33018KT 20/02 A3017 RMK A01 T01980019  RH  030%=      5-min Rain = 0
KCO1 052011Z 34020KT 20/02 A3017 RMK A01 T01980017  RH  030%=      5-min Rain = 0
KCO1 052012Z 34017G23KT 20/02 A3017 RMK A01 T01970015  RH  030%=      5-min Rain = 0
KCO1 052013Z 35019KT 20/02 A3017 RMK A01 T02000019  RH  030%=      5-min Rain = 0
KCO1 052014Z 34018KT 20/02 A3017 RMK A01 T01990019  RH  030%=      5-min Rain = 0
KCO1 052015Z 35017KT 20/02 A3017 RMK A01 T01990019  RH  030%=      5-min Rain = 0
KCO1 052016Z 36016G24KT 20/02 A3017 RMK A01 T01990020  RH  030%=      5-min Rain = 0
KCO1 052017Z 35019G24KT 20/02 A3017 RMK A01 T02030020  RH  030%=      5-min Rain = 0
KCO1 052018Z 35016KT 20/02 A3017 RMK A01 T02020020  RH  030%=      5-min Rain = 0
KCO1 052019Z 35016KT 20/02 A3017 RMK A01 T02020021  RH  030%=      5-min Rain = 0
KCO1 052020Z 35020KT 20/02 A3017 RMK A01 T02000021  RH  030%=      5-min Rain = 0
KCO1 052021Z 36021G27KT 20/02 A3017 RMK A01 T01990021  RH  031%=      5-min Rain = 0
KCO1 052022Z 34020KT 20/02 A3017 RMK A01 T01990021  RH  031%=      5-min Rain = 0
KCO1 052023Z 34018G25KT 20/02 A3017 RMK A01 T01990020  RH  030%=      5-min Rain = 0
KCO1 052024Z 35020G25KT 20/02 A3017 RMK A01 T01970020  RH  031%=      5-min Rain = 0
KCO1 052025Z 00018KT 20/02 A3018 RMK A01 T01950020  RH  031%=      5-min Rain = 0
KCO1 052026Z 35017G22KT 19/02 A3017 RMK A01 T01940019  RH  031%=      5-min Rain = 0
KCO1 052027Z 35018KT 19/02 A3017 RMK A01 T01940019  RH  031%=      5-min Rain = 0
KCO1 052028Z 35016KT 20/02 A3017 RMK A01 T01960019  RH  031%=      5-min Rain = 0
KCO1 052029Z 36014KT 20/02 A3017 RMK A01 T01960020  RH  031%=      5-min Rain = 0
KCO1 052030Z 01019KT 20/02 A3018 RMK A01 T01990024  RH  031%=      5-min Rain = 0
KCO1 052031Z 02018KT 20/02 A3018 RMK A01 T02000023  RH  031%=      5-min Rain = 0
KCO1 052032Z 01016KT 20/02 A3018 RMK A01 T01970021  RH  031%=      5-min Rain = 0
KCO1 052033Z 00018KT 19/02 A3018 RMK A01 T01930020  RH  032%=      5-min Rain = 0
KCO1 052034Z 00018KT 19/02 A3018 RMK A01 T01930020  RH  032%=      5-min Rain = 0
KCO1 052035Z 00019KT 19/02 A3018 RMK A01 T01920019  RH  032%=      5-min Rain = 0
KCO1 052036Z 35015G20KT 19/02 A3018 RMK A01 T01910019  RH  032%=      5-min Rain = 0
KCO1 052037Z 36013KT 19/02 A3018 RMK A01 T01930021  RH  032%=      5-min Rain = 0
KCO1 052038Z 00014KT 20/02 A3018 RMK A01 T01960022  RH  031%=      5-min Rain = 0
KCO1 052039Z 01017KT 20/02 A3018 RMK A01 T01990022  RH  031%=      5-min Rain = 0
KCO1 052040Z 01017KT 20/02 A3018 RMK A01 T01980019  RH  030%=      5-min Rain = 0
KCO1 052041Z 35018G23KT 20/02 A3018 RMK A01 T01980021  RH  031%=      5-min Rain = 0
KCO1 052042Z 35018KT 20/02 A3018 RMK A01 T01980020  RH  031%=      5-min Rain = 0
KCO1 052043Z 35015KT 20/02 A3018 RMK A01 T01960019  RH  031%=      5-min Rain = 0
KCO1 052044Z 36017KT 19/02 A3018 RMK A01 T01940019  RH  031%=      5-min Rain = 0
KCO1 052045Z 35014KT 19/02 A3018 RMK A01 T01920020  RH  032%=      5-min Rain = 0
KCO1 052046Z 35017KT 19/02 A3018 RMK A01 T01920022  RH  032%=      5-min Rain = 0
KCO1 052047Z 35017G23KT 19/02 A3018 RMK A01 T01940024  RH  032%=      5-min Rain = 0
KCO1 052048Z 36020KT 20/02 A3018 RMK A01 T01980023  RH  031%=      5-min Rain = 0
KCO1 052049Z 00018KT 20/02 A3018 RMK A01 T01960020  RH  031%=      5-min Rain = 0
KCO1 052050Z 36013KT 19/02 A3018 RMK A01 T01930020  RH  032%=      5-min Rain = 0
KCO1 052051Z 35012G17KT 19/02 A3018 RMK A01 T01940023  RH  032%=      5-min Rain = 0
KCO1 052052Z 34017KT 20/02 A3018 RMK A01 T01970024  RH  032%=      5-min Rain = 0
KCO1 052053Z 34014G20KT 20/02 A3018 RMK A01 T01980023  RH  031%=      5-min Rain = 0
KCO1 052054Z 36015KT 20/02 A3018 RMK A01 T01990023  RH  031%=      5-min Rain = 0
KCO1 052055Z 36017G24KT 20/02 A3018 RMK A01 T02010023  RH  031%=      5-min Rain = 0
KCO1 052056Z 35021KT 20/02 A3018 RMK A01 T02010024  RH  031%=      5-min Rain = 0
KCO1 052057Z 34022KT 20/02 A3018 RMK A01 T01990024  RH  031%=      5-min Rain = 0
KCO1 052058Z 35021KT 20/03 A3018 RMK A01 T01950025  RH  032%=      5-min Rain = 0
KCO1 052059Z 34019KT 20/03 A3018 RMK A01 T01950025  RH  032%=      5-min Rain = 0
KCO1 052100Z 35018G23KT 19/02 A3018 RMK A01 T01920023  RH  032%=      5-min Rain = 0
KCO1 052101Z 34018G23KT 19/02 A3018 RMK A01 T01910024  RH  033%=      5-min Rain = 0
KCO1 052102Z 34018KT 19/03 A3018 RMK A01 T01910025  RH  033%=      5-min Rain = 0
KCO1 052103Z 34020KT 19/02 A3018 RMK A01 T01910024  RH  033%=      5-min Rain = 0
KCO1 052104Z 35019G24KT 19/02 A3018 RMK A01 T01900024  RH  033%=      5-min Rain = 0
KCO1 052105Z 00018G23KT 19/03 A3018 RMK A01 T01940026  RH  033%=      5-min Rain = 0
KCO1 052106Z 02020KT 20/03 A3018 RMK A01 T01960026  RH  032%=      5-min Rain = 0
KCO1 052107Z 02021KT 20/03 A3019 RMK A01 T01960025  RH  032%=      5-min Rain = 0
KCO1 052108Z 02019KT 20/02 A3019 RMK A01 T01950023  RH  032%=      5-min Rain = 0
KCO1 052109Z 02019KT 20/02 A3019 RMK A01 T01950024  RH  032%=      5-min Rain = 0
KCO1 052110Z 00019G24KT 20/02 A3018 RMK A01 T01960024  RH  032%=      5-min Rain = 0
KCO1 052111Z 00021G26KT 20/02 A3019 RMK A01 T01970022  RH  031%=      5-min Rain = 0
KCO1 052112Z 36022KT 20/02 A3019 RMK A01 T01960022  RH  031%=      5-min Rain = 0
KCO1 052113Z 00018G24KT 19/02 A3019 RMK A01 T01930019  RH  031%=      5-min Rain = 0
KCO1 052114Z 02017KT 19/02 A3019 RMK A01 T01900019  RH  032%=      5-min Rain = 0
KCO1 052115Z 02017G22KT 19/02 A3019 RMK A01 T01910020  RH  032%=      5-min Rain = 0
KCO1 052116Z 01019KT 19/02 A3019 RMK A01 T01920021  RH  032%=      5-min Rain = 0
KCO1 052117Z 01019KT 19/02 A3019 RMK A01 T01910020  RH  032%=      5-min Rain = 0
KCO1 052118Z 01015G20KT 19/02 A3019 RMK A01 T01910021  RH  032%=      5-min Rain = 0
KCO1 052119Z 36017G22KT 19/02 A3019 RMK A01 T01940022  RH  032%=      5-min Rain = 0
KCO1 052120Z 01014KT 20/02 A3019 RMK A01 T01960022  RH  031%=      5-min Rain = 0
KCO1 052121Z 00017KT 20/02 A3019 RMK A01 T01970022  RH  031%=      5-min Rain = 0
KCO1 052122Z 01019KT 20/02 A3019 RMK A01 T01970021  RH  031%=      5-min Rain = 0
KCO1 052123Z 02019KT 20/02 A3019 RMK A01 T01950021  RH  031%=      5-min Rain = 0
KCO1 052124Z 02019KT 20/02 A3019 RMK A01 T01950021  RH  031%=      5-min Rain = 0
KCO1 052125Z 01014G20KT 19/02 A3019 RMK A01 T01930020  RH  032%=      5-min Rain = 0
KCO1 052126Z 36015KT 19/02 A3019 RMK A01 T01930020  RH  032%=      5-min Rain = 0
KCO1 052127Z 35016KT 19/02 A3019 RMK A01 T01930021  RH  032%=      5-min Rain = 0
KCO1 052128Z 34014KT 19/02 A3019 RMK A01 T01930022  RH  032%=      5-min Rain = 0
KCO1 052129Z 34019KT 19/02 A3019 RMK A01 T01920022  RH  032%=      5-min Rain = 0
KCO1 052130Z 36015KT 19/02 A3019 RMK A01 T01920024  RH  033%=      5-min Rain = 0
KCO1 052131Z 35018G26KT 20/02 A3019 RMK A01 T01950022  RH  032%=      5-min Rain = 0
KCO1 052132Z 36019G25KT 19/02 A3019 RMK A01 T01920021  RH  032%=      5-min Rain = 0
KCO1 052133Z 00020KT 19/02 A3019 RMK A01 T01920022  RH  032%=      5-min Rain = 0
KCO1 052134Z 01018KT 19/02 A3019 RMK A01 T01920021  RH  032%=      5-min Rain = 0
KCO1 052135Z 01018KT 19/02 A3019 RMK A01 T01920022  RH  032%=      5-min Rain = 0
KCO1 052136Z 01019G25KT 19/02 A302 RMK A01 T01920022  RH  032%=      5-min Rain = 0
KCO1 052137Z 02019KT 19/02 A302 RMK A01 T01910021  RH  032%=      5-min Rain = 0
KCO1 052138Z 01018KT 19/02 A3019 RMK A01 T01900022  RH  032%=      5-min Rain = 0
KCO1 052139Z 34017G23KT 19/02 A3019 RMK A01 T01930024  RH  032%=      5-min Rain = 0
KCO1 052140Z 34017G22KT 20/02 A3019 RMK A01 T01950023  RH  032%=      5-min Rain = 0
KCO1 052141Z 34018KT 19/02 A3019 RMK A01 T01940022  RH  032%=      5-min Rain = 0
KCO1 052142Z 34016KT 19/02 A3019 RMK A01 T01930021  RH  032%=      5-min Rain = 0
KCO1 052143Z 34016KT 19/02 A302 RMK A01 T01920022  RH  032%=      5-min Rain = 0
KCO1 052144Z 01015KT 19/02 A302 RMK A01 T01920021  RH  032%=      5-min Rain = 0
KCO1 052145Z 01016KT 19/02 A302 RMK A01 T01930020  RH  032%=      5-min Rain = 0
KCO1 052146Z 01017G23KT 19/02 A302 RMK A01 T01930020  RH  031%=      5-min Rain = 0
KCO1 052147Z 01017G22KT 19/02 A302 RMK A01 T01930019  RH  031%=      5-min Rain = 0
KCO1 052148Z 35014KT 19/02 A302 RMK A01 T01900019  RH  032%=      5-min Rain = 0
KCO1 052149Z 35012KT 19/02 A302 RMK A01 T01910021  RH  032%=      5-min Rain = 0
KCO1 052150Z 35010KT 19/02 A302 RMK A01 T01900021  RH  032%=      5-min Rain = 0
KCO1 052151Z 35014G24KT 19/02 A302 RMK A01 T01910024  RH  033%=      5-min Rain = 0
KCO1 052152Z 36016G21KT 20/03 A302 RMK A01 T01950026  RH  032%=      5-min Rain = 0
KCO1 052153Z 01014G20KT 20/03 A302 RMK A01 T01970026  RH  032%=      5-min Rain = 0
KCO1 052154Z 35015G20KT 20/03 A302 RMK A01 T01970026  RH  032%=      5-min Rain = 0
KCO1 052155Z 36016KT 20/02 A302 RMK A01 T01980023  RH  031%=      5-min Rain = 0
KCO1 052156Z 35013G19KT 20/02 A302 RMK A01 T01970022  RH  031%=      5-min Rain = 0
KCO1 052157Z 36016G21KT 20/02 A302 RMK A01 T01980024  RH  031%=      5-min Rain = 0
KCO1 052158Z 01018KT 20/03 A302 RMK A01 T01970025  RH  032%=      5-min Rain = 0
KCO1 052159Z 01015KT 19/02 A302 RMK A01 T01930024  RH  032%=      5-min Rain = 0
KCO1 052200Z 01017KT 19/03 A302 RMK A01 T01910025  RH  033%=      5-min Rain = 0
KCO1 052201Z 00019KT 19/03 A302 RMK A01 T01930026  RH  033%=      5-min Rain = 0
KCO1 052202Z 01019KT 19/03 A302 RMK A01 T01920026  RH  033%=      5-min Rain = 0
KCO1 052203Z 01020KT 19/02 A302 RMK A01 T01890024  RH  033%=      5-min Rain = 0
KCO1 052204Z 01015KT 19/02 A302 RMK A01 T01860024  RH  034%=      5-min Rain = 0
KCO1 052205Z 00016G21KT 19/02 A302 RMK A01 T01850024  RH  034%=      5-min Rain = 0
KCO1 052206Z 00013KT 18/02 A302 RMK A01 T01840023  RH  034%=      5-min Rain = 0
KCO1 052207Z 01013KT 18/02 A302 RMK A01 T01830024  RH  034%=      5-min Rain = 0
KCO1 052208Z 00014KT 19/03 A302 RMK A01 T01850025  RH  035%=      5-min Rain = 0
KCO1 052209Z 35018KT 19/03 A302 RMK A01 T01860026  RH  034%=      5-min Rain = 0
KCO1 052210Z 36019KT 19/03 A302 RMK A01 T01860026  RH  034%=      5-min Rain = 0
KCO1 052211Z 35017KT 19/03 A302 RMK A01 T01860025  RH  034%=      5-min Rain = 0
KCO1 052212Z 35018KT 19/03 A302 RMK A01 T01860025  RH  034%=      5-min Rain = 0
KCO1 052213Z 34018KT 19/03 A302 RMK A01 T01880025  RH  034%=      5-min Rain = 0
KCO1 052214Z 35019KT 19/02 A302 RMK A01 T01880024  RH  034%=      5-min Rain = 0
KCO1 052215Z 35018KT 19/02 A302 RMK A01 T01870023  RH  034%=      5-min Rain = 0
KCO1 052216Z 35016KT 19/02 A302 RMK A01 T01860023  RH  034%=      5-min Rain = 0
KCO1 052217Z 34014KT 19/02 A302 RMK A01 T01850024  RH  034%=      5-min Rain = 0
KCO1 052218Z 35013KT 19/02 A302 RMK A01 T01850024  RH  034%=      5-min Rain = 0
KCO1 052219Z 35018KT 19/02 A302 RMK A01 T01860024  RH  034%=      5-min Rain = 0
KCO1 052220Z 36019KT 19/02 A3021 RMK A01 T01860023  RH  034%=      5-min Rain = 0
KCO1 052221Z 01015KT 19/02 A3021 RMK A01 T01860022  RH  033%=      5-min Rain = 0
KCO1 052222Z 01015KT 19/02 A302 RMK A01 T01870022  RH  033%=      5-min Rain = 0
KCO1 052223Z 02018KT 19/02 A3021 RMK A01 T01880022  RH  033%=      5-min Rain = 0
KCO1 052224Z 02015KT 19/02 A3021 RMK A01 T01880023  RH  033%=      5-min Rain = 0
KCO1 052225Z 02014KT 19/02 A3021 RMK A01 T01890024  RH  033%=      5-min Rain = 0
KCO1 052226Z 02015KT 19/02 A3021 RMK A01 T01900024  RH  033%=      5-min Rain = 0
KCO1 052227Z 02016KT 19/02 A3021 RMK A01 T01890023  RH  033%=      5-min Rain = 0
KCO1 052228Z 01015KT 19/02 A3021 RMK A01 T01850022  RH  034%=      5-min Rain = 0
KCO1 052229Z 01013KT 18/02 A3021 RMK A01 T01840023  RH  034%=      5-min Rain = 0
KCO1 052230Z 01013G18KT 19/03 A3021 RMK A01 T01860025  RH  034%=      5-min Rain = 0
KCO1 052231Z 01017KT 19/02 A3021 RMK A01 T01900024  RH  033%=      5-min Rain = 0
KCO1 052232Z 01017KT 19/02 A3021 RMK A01 T01910022  RH  032%=      5-min Rain = 0
KCO1 052233Z 01016KT 19/02 A3021 RMK A01 T01900022  RH  032%=      5-min Rain = 0
KCO1 052234Z 01016G21KT 19/02 A3021 RMK A01 T01900022  RH  033%=      5-min Rain = 0
KCO1 052235Z 02018KT 19/02 A3021 RMK A01 T01880021  RH  033%=      5-min Rain = 0
KCO1 052236Z 01016KT 19/02 A3021 RMK A01 T01870021  RH  033%=      5-min Rain = 0
KCO1 052237Z 00017KT 19/02 A3021 RMK A01 T01890022  RH  033%=      5-min Rain = 0
KCO1 052238Z 01018KT 19/02 A3021 RMK A01 T01890021  RH  033%=      5-min Rain = 0
KCO1 052239Z 00015KT 19/02 A3021 RMK A01 T01870021  RH  033%=      5-min Rain = 0
KCO1 052240Z 36014KT 19/02 A3021 RMK A01 T01860021  RH  033%=      5-min Rain = 0
KCO1 052241Z 35015KT 19/02 A3021 RMK A01 T01850020  RH  033%=      5-min Rain = 0
KCO1 052242Z 35016KT 18/02 A3021 RMK A01 T01830020  RH  034%=      5-min Rain = 0
KCO1 052243Z 35014KT 18/02 A3021 RMK A01 T01820020  RH  034%=      5-min Rain = 0
KCO1 052244Z 35012KT 18/02 A3021 RMK A01 T01810020  RH  034%=      5-min Rain = 0
KCO1 052245Z 36011KT 18/02 A3021 RMK A01 T01810020  RH  034%=      5-min Rain = 0
KCO1 052246Z 34013KT 18/02 A3021 RMK A01 T01830022  RH  034%=      5-min Rain = 0
KCO1 052247Z 35011KT 18/02 A3021 RMK A01 T01830021  RH  034%=      5-min Rain = 0
KCO1 052248Z 35012G17KT 19/02 A3021 RMK A01 T01860024  RH  034%=      5-min Rain = 0
KCO1 052249Z 36017G22KT 19/02 A3021 RMK A01 T01870023  RH  033%=      5-min Rain = 0
KCO1 052250Z 01019KT 19/02 A3021 RMK A01 T01880022  RH  033%=      5-min Rain = 0
KCO1 052251Z 01017KT 19/02 A3021 RMK A01 T01850020  RH  033%=      5-min Rain = 0
KCO1 052252Z 01014KT 18/02 A3021 RMK A01 T01830020  RH  034%=      5-min Rain = 0
KCO1 052253Z 36013G20KT 18/02 A3021 RMK A01 T01830021  RH  034%=      5-min Rain = 0
KCO1 052254Z 36017KT 18/02 A3021 RMK A01 T01840021  RH  034%=      5-min Rain = 0
KCO1 052255Z 00017KT 18/02 A3021 RMK A01 T01830021  RH  034%=      5-min Rain = 0
KCO1 052256Z 01017KT 18/02 A3021 RMK A01 T01820021  RH  034%=      5-min Rain = 0
KCO1 052257Z 01016KT 18/02 A3021 RMK A01 T01810021  RH  034%=      5-min Rain = 0
KCO1 052258Z 01019KT 18/02 A3021 RMK A01 T01810020  RH  034%=      5-min Rain = 0
KCO1 052259Z 01017KT 18/02 A3021 RMK A01 T01800019  RH  034%=      5-min Rain = 0
KCO1 052300Z 01018KT 18/02 A3021 RMK A01 T01800018  RH  034%=      5-min Rain = 0
KCO1 052301Z 01016KT 18/02 A3021 RMK A01 T01800018  RH  034%=      5-min Rain = 0
KCO1 052302Z 01017KT 18/02 A3021 RMK A01 T01790018  RH  034%=      5-min Rain = 0
KCO1 052303Z 01012KT 18/02 A3021 RMK A01 T01780018  RH  034%=      5-min Rain = 0
KCO1 052304Z 01013KT 18/02 A3021 RMK A01 T01800020  RH  034%=      5-min Rain = 0
KCO1 052305Z 01017KT 18/02 A3021 RMK A01 T01820020  RH  034%=      5-min Rain = 0
KCO1 052306Z 01018KT 18/02 A3021 RMK A01 T01830020  RH  034%=      5-min Rain = 0
KCO1 052307Z 01016KT 18/02 A3021 RMK A01 T01840022  RH  034%=      5-min Rain = 0
KCO1 052308Z 36013KT 19/02 A3021 RMK A01 T01850022  RH  034%=      5-min Rain = 0
KCO1 052309Z 36017KT 19/02 A3022 RMK A01 T01880023  RH  033%=      5-min Rain = 0
KCO1 052310Z 00016KT 19/02 A3022 RMK A01 T01870022  RH  033%=      5-min Rain = 0
KCO1 052311Z 00017KT 19/02 A3022 RMK A01 T01870022  RH  033%=      5-min Rain = 0
KCO1 052312Z 35018KT 19/02 A3021 RMK A01 T01860020  RH  033%=      5-min Rain = 0
KCO1 052313Z 36017KT 19/02 A3022 RMK A01 T01850020  RH  033%=      5-min Rain = 0
KCO1 052314Z 00014KT 19/02 A3022 RMK A01 T01850022  RH  033%=      5-min Rain = 0
KCO1 052315Z 00016KT 19/02 A3022 RMK A01 T01880022  RH  033%=      5-min Rain = 0
KCO1 052316Z 01017KT 19/02 A3022 RMK A01 T01880021  RH  033%=      5-min Rain = 0
KCO1 052317Z 00015G20KT 19/02 A3022 RMK A01 T01870021  RH  033%=      5-min Rain = 0
KCO1 052318Z 00013KT 19/02 A3022 RMK A01 T01870021  RH  033%=      5-min Rain = 0
KCO1 052319Z 01020KT 19/02 A3022 RMK A01 T01880020  RH  033%=      5-min Rain = 0
KCO1 052320Z 00017KT 19/02 A3022 RMK A01 T01860019  RH  033%=      5-min Rain = 0
KCO1 052321Z 00017KT 19/02 A3022 RMK A01 T01860020  RH  033%=      5-min Rain = 0
KCO1 052322Z 00016KT 19/02 A3022 RMK A01 T01850019  RH  033%=      5-min Rain = 0
KCO1 052323Z 36014KT 19/02 A3022 RMK A01 T01850019  RH  033%=      5-min Rain = 0
KCO1 052324Z 35016G21KT 19/02 A3022 RMK A01 T01850019  RH  033%=      5-min Rain = 0
KCO1 052325Z 35018KT 19/02 A3022 RMK A01 T01850019  RH  033%=      5-min Rain = 0
KCO1 052326Z 35018KT 18/02 A3022 RMK A01 T01830018  RH  033%=      5-min Rain = 0
KCO1 052327Z 36018KT 18/02 A3022 RMK A01 T01820018  RH  033%=      5-min Rain = 0
KCO1 052328Z 35013KT 18/02 A3022 RMK A01 T01810018  RH  033%=      5-min Rain = 0
KCO1 052329Z 00014KT 18/02 A3022 RMK A01 T01810018  RH  034%=      5-min Rain = 0
KCO1 052330Z 35014KT 18/02 A3022 RMK A01 T01810018  RH  034%=      5-min Rain = 0
KCO1 052331Z 35014KT 18/02 A3022 RMK A01 T01820019  RH  034%=      5-min Rain = 0
KCO1 052332Z 35016KT 18/02 A3022 RMK A01 T01820018  RH  033%=      5-min Rain = 0
KCO1 052333Z 34016KT 18/02 A3022 RMK A01 T01820019  RH  033%=      5-min Rain = 0
KCO1 052334Z 35013KT 18/02 A3022 RMK A01 T01810020  RH  034%=      5-min Rain = 0
KCO1 052335Z 35013KT 18/02 A3022 RMK A01 T01810021  RH  034%=      5-min Rain = 0
KCO1 052336Z 34014KT 18/02 A3022 RMK A01 T01830021  RH  034%=      5-min Rain = 0
KCO1 052337Z 33013KT 18/02 A3022 RMK A01 T01830021  RH  034%=      5-min Rain = 0
KCO1 052338Z 33016KT 18/02 A3022 RMK A01 T01820020  RH  034%=      5-min Rain = 0
KCO1 052339Z 34014KT 18/02 A3022 RMK A01 T01820021  RH  034%=      5-min Rain = 0
KCO1 052340Z 33016G21KT 18/02 A3022 RMK A01 T01830021  RH  034%=      5-min Rain = 0
KCO1 052341Z 36020KT 18/02 A3022 RMK A01 T01840021  RH  033%=      5-min Rain = 0
KCO1 052342Z 36015G20KT 19/02 A3022 RMK A01 T01850020  RH  033%=      5-min Rain = 0
KCO1 052343Z 35019KT 19/02 A3022 RMK A01 T01860020  RH  033%=      5-min Rain = 0
KCO1 052344Z 00017KT 19/02 A3022 RMK A01 T01850020  RH  033%=      5-min Rain = 0
KCO1 052345Z 36015G20KT 18/02 A3022 RMK A01 T01830019  RH  033%=      5-min Rain = 0
KCO1 052346Z 35014KT 18/02 A3022 RMK A01 T01830020  RH  034%=      5-min Rain = 0
KCO1 052347Z 35017KT 18/02 A3022 RMK A01 T01830020  RH  034%=      5-min Rain = 0
KCO1 052348Z 35017KT 18/02 A3023 RMK A01 T01820020  RH  034%=      5-min Rain = 0
KCO1 052349Z 35017KT 18/02 A3023 RMK A01 T01800020  RH  034%=      5-min Rain = 0
KCO1 052350Z 35015KT 18/02 A3023 RMK A01 T01800020  RH  034%=      5-min Rain = 0
KCO1 052351Z 01013KT 18/02 A3023 RMK A01 T01800020  RH  034%=      5-min Rain = 0
KCO1 052352Z 01014KT 18/02 A3023 RMK A01 T01800020  RH  034%=      5-min Rain = 0
KCO1 052353Z 00016KT 18/02 A3023 RMK A01 T01800019  RH  034%=      5-min Rain = 0
KCO1 052354Z 00012G18KT 18/02 A3023 RMK A01 T01790019  RH  034%=      5-min Rain = 0
KCO1 052355Z 00017KT 18/02 A3023 RMK A01 T01790019  RH  034%=      5-min Rain = 0
KCO1 052356Z 00016KT 18/02 A3023 RMK A01 T01780019  RH  034%=      5-min Rain = 0
KCO1 052357Z 36017KT 18/02 A3023 RMK A01 T01770019  RH  035%=      5-min Rain = 0
KCO1 052358Z 00015KT 18/02 A3023 RMK A01 T01760020  RH  035%=      5-min Rain = 0
KCO1 052359Z 36017KT 18/02 A3023 RMK A01 T01760020  RH  035%=      5-min Rain = 0
KCO1 060000Z 00016G21KT 18/02 A3023 RMK A01 T01760020  RH  035%=      5-min Rain = 0
KCO1 060001Z 00018KT 18/02 A3023 RMK A01 T01760020  RH  035%=      5-min Rain = 0
KCO1 060002Z 36014KT 18/02 A3023 RMK A01 T01760020  RH  035%=      5-min Rain = 0
KCO1 060003Z 00017KT 18/02 A3023 RMK A01 T01750020  RH  035%=      5-min Rain = 0
KCO1 060004Z 00016KT 18/02 A3024 RMK A01 T01750020  RH  035%=      5-min Rain = 0
KCO1 060005Z 00014KT 18/02 A3024 RMK A01 T01750020  RH  035%=      5-min Rain = 0
KCO1 060006Z 35014KT 18/02 A3024 RMK A01 T01750020  RH  035%=      5-min Rain = 0
KCO1 060007Z 00014KT 18/02 A3024 RMK A01 T01760020  RH  035%=      5-min Rain = 0
KCO1 060008Z 01014KT 18/02 A3024 RMK A01 T01750020  RH  035%=      5-min Rain = 0
KCO1 060009Z 00013KT 18/02 A3024 RMK A01 T01750020  RH  035%=      5-min Rain = 0
KCO1 060010Z 36014KT 18/02 A3024 RMK A01 T01750019  RH  035%=      5-min Rain = 0
KCO1 060011Z 00015KT 17/02 A3024 RMK A01 T01740020  RH  035%=      5-min Rain = 0
KCO1 060012Z 00014KT 17/02 A3024 RMK A01 T01740019  RH  035%=      5-min Rain = 0
KCO1 060013Z 01013G20KT 17/02 A3024 RMK A01 T01740019  RH  035%=      5-min Rain = 0
KCO1 060014Z 00016KT 17/02 A3024 RMK A01 T01740019  RH  035%=      5-min Rain = 0
KCO1 060015Z 01012KT 17/02 A3024 RMK A01 T01730018  RH  035%=      5-min Rain = 0
KCO1 060016Z 00011G16KT 17/02 A3024 RMK A01 T01730019  RH  035%=      5-min Rain = 0
KCO1 060017Z 36014KT 17/02 A3024 RMK A01 T01730019  RH  035%=      5-min Rain = 0
KCO1 060018Z 35014KT 17/02 A3024 RMK A01 T01730018  RH  035%=      5-min Rain = 0
KCO1 060019Z 01018KT 17/02 A3024 RMK A01 T01730019  RH  035%=      5-min Rain = 0
KCO1 060020Z 02018KT 17/02 A3024 RMK A01 T01730019  RH  035%=      5-min Rain = 0
KCO1 060021Z 01016G21KT 17/02 A3024 RMK A01 T01730019  RH  036%=      5-min Rain = 0
KCO1 060022Z 01015KT 17/02 A3024 RMK A01 T01720019  RH  036%=      5-min Rain = 0
KCO1 060023Z 01015KT 17/02 A3024 RMK A01 T01720019  RH  036%=      5-min Rain = 0
KCO1 060024Z 01012KT 17/02 A3024 RMK A01 T01710019  RH  036%=      5-min Rain = 0
KCO1 060025Z 01015KT 17/02 A3024 RMK A01 T01720020  RH  036%=      5-min Rain = 0
KCO1 060026Z 01017KT 17/02 A3024 RMK A01 T01710019  RH  036%=      5-min Rain = 0
KCO1 060027Z 01017KT 17/02 A3024 RMK A01 T01710019  RH  036%=      5-min Rain = 0
KCO1 060028Z 01017KT 17/02 A3024 RMK A01 T01700019  RH  036%=      5-min Rain = 0
KCO1 060029Z 01015KT 17/02 A3024 RMK A01 T01690019  RH  036%=      5-min Rain = 0
KCO1 060030Z 00017KT 17/02 A3024 RMK A01 T01690019  RH  036%=      5-min Rain = 0
KCO1 060031Z 01016KT 17/02 A3025 RMK A01 T01690019  RH  036%=      5-min Rain = 0
KCO1 060032Z 00015KT 17/02 A3025 RMK A01 T01690018  RH  036%=      5-min Rain = 0
KCO1 060033Z 01015KT 17/02 A3025 RMK A01 T01690018  RH  036%=      5-min Rain = 0
KCO1 060034Z 01013KT 17/02 A3025 RMK A01 T01680018  RH  036%=      5-min Rain = 0
KCO1 060035Z 01015KT 17/02 A3025 RMK A01 T01680018  RH  036%=      5-min Rain = 0
KCO1 060036Z 01015KT 17/02 A3025 RMK A01 T01680017  RH  036%=      5-min Rain = 0
KCO1 060037Z 01015KT 17/02 A3025 RMK A01 T01680017  RH  036%=      5-min Rain = 0
KCO1 060038Z 01014KT 17/02 A3025 RMK A01 T01680016  RH  036%=      5-min Rain = 0
KCO1 060039Z 01017G22KT 17/02 A3025 RMK A01 T01680016  RH  036%=      5-min Rain = 0
KCO1 060040Z 01016KT 17/02 A3025 RMK A01 T01670016  RH  036%=      5-min Rain = 0
KCO1 060041Z 01016KT 17/02 A3025 RMK A01 T01660015  RH  036%=      5-min Rain = 0
KCO1 060042Z 01012KT 17/02 A3025 RMK A01 T01660015  RH  036%=      5-min Rain = 0
KCO1 060043Z 02016KT 17/01 A3025 RMK A01 T01650014  RH  036%=      5-min Rain = 0
KCO1 060044Z 02014KT 16/01 A3025 RMK A01 T01640014  RH  036%=      5-min Rain = 0
KCO1 060045Z 02012KT 16/01 A3025 RMK A01 T01640014  RH  036%=      5-min Rain = 0
KCO1 060046Z 02014KT 16/01 A3025 RMK A01 T01630014  RH  036%=      5-min Rain = 0
KCO1 060047Z 01015KT 16/01 A3025 RMK A01 T01630014  RH  037%=      5-min Rain = 0
KCO1 060048Z 01014KT 16/01 A3025 RMK A01 T01620014  RH  037%=      5-min Rain = 0
KCO1 060049Z 01015KT 16/01 A3026 RMK A01 T01620014  RH  037%=      5-min Rain = 0
KCO1 060050Z 01019KT 16/02 A3026 RMK A01 T01620015  RH  037%=      5-min Rain = 0
KCO1 060051Z 02018KT 16/02 A3026 RMK A01 T01610016  RH  037%=      5-min Rain = 0
KCO1 060052Z 02018KT 16/02 A3026 RMK A01 T01610016  RH  038%=      5-min Rain = 0
KCO1 060053Z 01015G20KT 16/02 A3026 RMK A01 T01600016  RH  038%=      5-min Rain = 0
KCO1 060054Z 01016KT 16/02 A3026 RMK A01 T01590016  RH  038%=      5-min Rain = 0
KCO1 060055Z 02017KT 16/02 A3026 RMK A01 T01580015  RH  038%=      5-min Rain = 0
KCO1 060056Z 01016KT 16/02 A3026 RMK A01 T01580015  RH  038%=      5-min Rain = 0
KCO1 060057Z 01015KT 16/02 A3026 RMK A01 T01570015  RH  038%=      5-min Rain = 0
KCO1 060058Z 02018KT 16/02 A3026 RMK A01 T01570015  RH  038%=      5-min Rain = 0
KCO1 060059Z 02015KT 16/02 A3026 RMK A01 T01570016  RH  039%=      5-min Rain = 0
KCO1 060100Z 02015G21KT 16/02 A3026 RMK A01 T01560016  RH  039%=      5-min Rain = 0
KCO1 060101Z 02015KT 16/02 A3026 RMK A01 T01560017  RH  039%=      5-min Rain = 0
KCO1 060102Z 02015KT 16/02 A3026 RMK A01 T01550017  RH  039%=      5-min Rain = 0
KCO1 060103Z 02018KT 16/02 A3026 RMK A01 T01550017  RH  039%=      5-min Rain = 0
KCO1 060104Z 02017KT 15/02 A3026 RMK A01 T01540017  RH  039%=      5-min Rain = 0
KCO1 060105Z 02017KT 15/02 A3027 RMK A01 T01540017  RH  040%=      5-min Rain = 0
KCO1 060106Z 02015KT 15/02 A3027 RMK A01 T01530017  RH  040%=      5-min Rain = 0
KCO1 060107Z 01016KT 15/02 A3027 RMK A01 T01520017  RH  040%=      5-min Rain = 0
KCO1 060108Z 02016KT 15/02 A3027 RMK A01 T01520018  RH  040%=      5-min Rain = 0
KCO1 060109Z 02017KT 15/02 A3027 RMK A01 T01510017  RH  040%=      5-min Rain = 0
KCO1 060110Z 01016KT 15/02 A3027 RMK A01 T01510017  RH  041%=      5-min Rain = 0
KCO1 060111Z 02017KT 15/02 A3027 RMK A01 T01500018  RH  041%=      5-min Rain = 0
KCO1 060112Z 02016KT 15/02 A3027 RMK A01 T01500018  RH  041%=      5-min Rain = 0
KCO1 060113Z 02013KT 15/02 A3027 RMK A01 T01490018  RH  041%=      5-min Rain = 0
KCO1 060114Z 02013G18KT 15/02 A3027 RMK A01 T01490017  RH  041%=      5-min Rain = 0
KCO1 060115Z 02015KT 15/02 A3027 RMK A01 T01480018  RH  041%=      5-min Rain = 0
KCO1 060116Z 02014KT 15/02 A3027 RMK A01 T01470017  RH  041%=      5-min Rain = 0
KCO1 060117Z 03018KT 15/02 A3028 RMK A01 T01470017  RH  041%=      5-min Rain = 0
KCO1 060118Z 02017KT 15/02 A3028 RMK A01 T01470017  RH  041%=      5-min Rain = 0
KCO1 060119Z 03016KT 15/02 A3028 RMK A01 T01470017  RH  041%=      5-min Rain = 0
KCO1 060120Z 03014KT 15/02 A3028 RMK A01 T01470017  RH  041%=      5-min Rain = 0
KCO1 060121Z 03016KT 15/02 A3028 RMK A01 T01460017  RH  042%=      5-min Rain = 0
KCO1 060122Z 02013KT 15/02 A3028 RMK A01 T01460017  RH  042%=      5-min Rain = 0
KCO1 060123Z 02013KT 15/02 A3028 RMK A01 T01450016  RH  042%=      5-min Rain = 0
KCO1 060124Z 02011KT 15/02 A3028 RMK A01 T01450016  RH  042%=      5-min Rain = 0
KCO1 060125Z 02010KT 14/02 A3028 RMK A01 T01440016  RH  042%=      5-min Rain = 0
KCO1 060126Z 02010KT 14/02 A3028 RMK A01 T01430016  RH  042%=      5-min Rain = 0
KCO1 060127Z 02011KT 14/02 A3028 RMK A01 T01420016  RH  042%=      5-min Rain = 0
KCO1 060128Z 02012KT 14/02 A3028 RMK A01 T01420016  RH  042%=      5-min Rain = 0
KCO1 060129Z 02010KT 14/02 A3028 RMK A01 T01420016  RH  043%=      5-min Rain = 0
KCO1 060130Z 02012KT 14/02 A3028 RMK A01 T01410016  RH  043%=      5-min Rain = 0
KCO1 060131Z 01014KT 14/02 A3028 RMK A01 T01410016  RH  043%=      5-min Rain = 0
KCO1 060132Z 02011KT 14/02 A3028 RMK A01 T01410016  RH  043%=      5-min Rain = 0
KCO1 060133Z 02013KT 14/02 A3028 RMK A01 T01410016  RH  043%=      5-min Rain = 0
KCO1 060134Z 02012KT 14/02 A3028 RMK A01 T01400016  RH  043%=      5-min Rain = 0
KCO1 060135Z 02011KT 14/02 A3028 RMK A01 T01400015  RH  043%=      5-min Rain = 0
KCO1 060136Z 02012KT 14/02 A3028 RMK A01 T01390015  RH  043%=      5-min Rain = 0
KCO1 060137Z 02014KT 14/02 A3028 RMK A01 T01390015  RH  043%=      5-min Rain = 0
KCO1 060138Z 02013KT 14/02 A3028 RMK A01 T01390015  RH  043%=      5-min Rain = 0
KCO1 060139Z 02014KT 14/02 A3029 RMK A01 T01390015  RH  043%=      5-min Rain = 0
KCO1 060140Z 02012KT 14/02 A3029 RMK A01 T01390015  RH  043%=      5-min Rain = 0
KCO1 060141Z 02012KT 14/02 A3029 RMK A01 T01390015  RH  043%=      5-min Rain = 0
KCO1 060142Z 02011KT 14/02 A3029 RMK A01 T01380015  RH  043%=      5-min Rain = 0
KCO1 060143Z 02012KT 14/02 A3029 RMK A01 T01380015  RH  043%=      5-min Rain = 0
KCO1 060144Z 02011KT 14/02 A3029 RMK A01 T01380015  RH  043%=      5-min Rain = 0
KCO1 060145Z 02013KT 14/02 A3029 RMK A01 T01370015  RH  043%=      5-min Rain = 0
KCO1 060146Z 02015KT 14/01 A3029 RMK A01 T01370014  RH  043%=      5-min Rain = 0
KCO1 060147Z 03014KT 14/02 A3029 RMK A01 T01370015  RH  043%=      5-min Rain = 0
KCO1 060148Z 03015KT 14/02 A3029 RMK A01 T01370015  RH  043%=      5-min Rain = 0
KCO1 060149Z 02013KT 14/02 A3029 RMK A01 T01370015  RH  043%=      5-min Rain = 0
KCO1 060150Z 03012KT 14/02 A3029 RMK A01 T01370015  RH  043%=      5-min Rain = 0
KCO1 060151Z 03012KT 14/02 A3029 RMK A01 T01360015  RH  044%=      5-min Rain = 0
KCO1 060152Z 03013KT 14/02 A303 RMK A01 T01360015  RH  044%=      5-min Rain = 0
KCO1 060153Z 03010G15KT 14/02 A303 RMK A01 T01350015  RH  044%=      5-min Rain = 0
KCO1 060154Z 03012KT 14/02 A303 RMK A01 T01350015  RH  044%=      5-min Rain = 0
KCO1 060155Z 03011KT 13/02 A303 RMK A01 T01340015  RH  044%=      5-min Rain = 0
KCO1 060156Z 03012KT 13/02 A303 RMK A01 T01340015  RH  044%=      5-min Rain = 0
KCO1 060157Z 03011KT 13/02 A303 RMK A01 T01340015  RH  044%=      5-min Rain = 0
KCO1 060158Z 02011KT 13/02 A303 RMK A01 T01340015  RH  044%=      5-min Rain = 0
KCO1 060159Z 02012KT 13/02 A303 RMK A01 T01330015  RH  045%=      5-min Rain = 0
KCO1 060200Z 02014KT 13/02 A303 RMK A01 T01320015  RH  045%=      5-min Rain = 0
KCO1 060201Z 02012KT 13/02 A303 RMK A01 T01330015  RH  045%=      5-min Rain = 0
KCO1 060202Z 02013KT 13/02 A303 RMK A01 T01330015  RH  045%=      5-min Rain = 0
KCO1 060203Z 02014KT 13/02 A303 RMK A01 T01330015  RH  045%=      5-min Rain = 0
KCO1 060204Z 02011KT 13/01 A303 RMK A01 T01320014  RH  045%=      5-min Rain = 0
KCO1 060205Z 02012G17KT 13/01 A303 RMK A01 T01320014  RH  045%=      5-min Rain = 0
KCO1 060206Z 02011KT 13/01 A303 RMK A01 T01310014  RH  045%=      5-min Rain = 0
KCO1 060207Z 02012KT 13/01 A303 RMK A01 T01310014  RH  045%=      5-min Rain = 0
KCO1 060208Z 02011KT 13/01 A303 RMK A01 T01300014  RH  045%=      5-min Rain = 0
KCO1 060209Z 02011KT 13/01 A303 RMK A01 T01300014  RH  045%=      5-min Rain = 0
KCO1 060210Z 03012KT 13/01 A303 RMK A01 T01300014  RH  045%=      5-min Rain = 0
KCO1 060211Z 03011KT 13/01 A303 RMK A01 T01300014  RH  045%=      5-min Rain = 0
KCO1 060212Z 03011KT 13/01 A303 RMK A01 T01300014  RH  045%=      5-min Rain = 0
KCO1 060213Z 02011KT 13/01 A303 RMK A01 T01300013  RH  045%=      5-min Rain = 0
KCO1 060214Z 02011KT 13/01 A303 RMK A01 T01290013  RH  045%=      5-min Rain = 0
KCO1 060215Z 02011KT 13/01 A303 RMK A01 T01290013  RH  045%=      5-min Rain = 0
KCO1 060216Z 03011KT 13/01 A303 RMK A01 T01280013  RH  045%=      5-min Rain = 0
KCO1 060217Z 02011KT 13/01 A303 RMK A01 T01280013  RH  045%=      5-min Rain = 0
KCO1 060218Z 02011KT 13/01 A303 RMK A01 T01280013  RH  045%=      5-min Rain = 0
KCO1 060219Z 02011KT 13/01 A303 RMK A01 T01280013  RH  046%=      5-min Rain = 0
KCO1 060220Z 02009KT 13/01 A303 RMK A01 T01270012  RH  046%=      5-min Rain = 0
KCO1 060221Z 02011KT 13/01 A303 RMK A01 T01270013  RH  046%=      5-min Rain = 0
KCO1 060222Z 02011KT 13/01 A303 RMK A01 T01270013  RH  046%=      5-min Rain = 0
KCO1 060223Z 02012KT 13/01 A3031 RMK A01 T01270013  RH  046%=      5-min Rain = 0
KCO1 060224Z 02010KT 13/01 A3031 RMK A01 T01270012  RH  046%=      5-min Rain = 0
KCO1 060225Z 02010KT 13/01 A3031 RMK A01 T01270012  RH  046%=      5-min Rain = 0
KCO1 060226Z 02010KT 13/01 A3031 RMK A01 T01270012  RH  046%=      5-min Rain = 0
KCO1 060227Z 02010KT 13/01 A3031 RMK A01 T01260012  RH  046%=      5-min Rain = 0
KCO1 060228Z 02009KT 13/01 A3031 RMK A01 T01260012  RH  046%=      5-min Rain = 0
KCO1 060229Z 02009KT 13/01 A3031 RMK A01 T01250012  RH  046%=      5-min Rain = 0
KCO1 060230Z 02010KT 13/01 A3031 RMK A01 T01250012  RH  046%=      5-min Rain = 0
KCO1 060231Z 02009KT 12/01 A3031 RMK A01 T01240012  RH  046%=      5-min Rain = 0
KCO1 060232Z 02009KT 12/01 A3031 RMK A01 T01240012  RH  046%=      5-min Rain = 0
KCO1 060233Z 02009KT 12/01 A3031 RMK A01 T01240012  RH  046%=      5-min Rain = 0
KCO1 060234Z 02009KT 12/01 A3031 RMK A01 T01230012  RH  047%=      5-min Rain = 0
KCO1 060235Z 02010KT 12/01 A3031 RMK A01 T01230013  RH  047%=      5-min Rain = 0
KCO1 060236Z 02009KT 12/01 A3031 RMK A01 T01230012  RH  047%=      5-min Rain = 0
KCO1 060237Z 02010KT 12/01 A3031 RMK A01 T01230012  RH  047%=      5-min Rain = 0
KCO1 060238Z 02010KT 12/01 A3031 RMK A01 T01220012  RH  047%=      5-min Rain = 0
KCO1 060239Z 02009KT 12/01 A3031 RMK A01 T01220012  RH  047%=      5-min Rain = 0
KCO1 060240Z 02009KT 12/01 A3031 RMK A01 T01220012  RH  047%=      5-min Rain = 0
KCO1 060241Z 02009KT 12/01 A3031 RMK A01 T01210012  RH  047%=      5-min Rain = 0
KCO1 060242Z 02008KT 12/01 A3031 RMK A01 T01210012  RH  047%=      5-min Rain = 0
KCO1 060243Z 02009KT 12/01 A3032 RMK A01 T01200012  RH  047%=      5-min Rain = 0
KCO1 060244Z 02009KT 12/01 A3032 RMK A01 T01200012  RH  048%=      5-min Rain = 0
KCO1 060245Z 02009KT 12/01 A3032 RMK A01 T01200012  RH  048%=      5-min Rain = 0
KCO1 060246Z 02009KT 12/01 A3032 RMK A01 T01200012  RH  048%=      5-min Rain = 0
KCO1 060247Z 02009KT 12/01 A3032 RMK A01 T01200013  RH  048%=      5-min Rain = 0
KCO1 060248Z 03009KT 12/01 A3032 RMK A01 T01200013  RH  048%=      5-min Rain = 0
KCO1 060249Z 02008KT 12/01 A3032 RMK A01 T01190012  RH  048%=      5-min Rain = 0
KCO1 060250Z 02009KT 12/01 A3032 RMK A01 T01200013  RH  048%=      5-min Rain = 0
KCO1 060251Z 02008KT 12/01 A3032 RMK A01 T01200013  RH  048%=      5-min Rain = 0
KCO1 060252Z 02008KT 12/01 A3032 RMK A01 T01200012  RH  048%=      5-min Rain = 0
KCO1 060253Z 02007KT 12/01 A3032 RMK A01 T01190012  RH  048%=      5-min Rain = 0
KCO1 060254Z 02007KT 12/01 A3032 RMK A01 T01190012  RH  048%=      5-min Rain = 0
KCO1 060255Z 02007KT 12/01 A3032 RMK A01 T01180012  RH  048%=      5-min Rain = 0
KCO1 060256Z 02008KT 12/01 A3032 RMK A01 T01180012  RH  048%=      5-min Rain = 0
KCO1 060257Z 02008KT 12/01 A3032 RMK A01 T01180012  RH  048%=      5-min Rain = 0
KCO1 060258Z 02008KT 12/01 A3032 RMK A01 T01180012  RH  048%=      5-min Rain = 0
KCO1 060259Z 03009KT 12/01 A3032 RMK A01 T01170012  RH  049%=      5-min Rain = 0
KCO1 060300Z 03008KT 12/01 A3032 RMK A01 T01170012  RH  049%=      5-min Rain = 0
KCO1 060301Z 02009G14KT 12/01 A3032 RMK A01 T01170012  RH  049%=      5-min Rain = 0
KCO1 060302Z 02007KT 12/01 A3032 RMK A01 T01170012  RH  048%=      5-min Rain = 0
KCO1 060303Z 03010KT 12/01 A3032 RMK A01 T01170012  RH  049%=      5-min Rain = 0
KCO1 060304Z 03009KT 12/01 A3032 RMK A01 T01170012  RH  049%=      5-min Rain = 0
KCO1 060305Z 02009KT 12/01 A3032 RMK A01 T01170012  RH  049%=      5-min Rain = 0
KCO1 060306Z 03010KT 12/01 A3032 RMK A01 T01160012  RH  049%=      5-min Rain = 0
KCO1 060307Z 03011KT 12/01 A3032 RMK A01 T01160012  RH  049%=      5-min Rain = 0
KCO1 060308Z 03010KT 12/01 A3032 RMK A01 T01170012  RH  049%=      5-min Rain = 0
KCO1 060309Z 02011KT 12/01 A3032 RMK A01 T01170012  RH  049%=      5-min Rain = 0
KCO1 060310Z 03010KT 12/01 A3032 RMK A01 T01170013  RH  049%=      5-min Rain = 0
KCO1 060311Z 02010KT 12/01 A3032 RMK A01 T01170013  RH  049%=      5-min Rain = 0
KCO1 060312Z 02010KT 12/01 A3032 RMK A01 T01160012  RH  049%=      5-min Rain = 0
KCO1 060313Z 02010KT 12/01 A3032 RMK A01 T01170013  RH  049%=      5-min Rain = 0
KCO1 060314Z 02010KT 12/01 A3032 RMK A01 T01160013  RH  049%=      5-min Rain = 0
KCO1 060315Z 02009KT 12/01 A3032 RMK A01 T01160013  RH  049%=      5-min Rain = 0
KCO1 060316Z 02010KT 12/01 A3032 RMK A01 T01170013  RH  049%=      5-min Rain = 0
KCO1 060317Z 02010KT 12/01 A3033 RMK A01 T01160013  RH  049%=      5-min Rain = 0
KCO1 060318Z 02010KT 12/01 A3033 RMK A01 T01160013  RH  049%=      5-min Rain = 0
KCO1 060319Z 02011KT 12/01 A3033 RMK A01 T01170014  RH  049%=      5-min Rain = 0
KCO1 060320Z 02011KT 12/01 A3033 RMK A01 T01170014  RH  049%=      5-min Rain = 0
KCO1 060321Z 02010KT 12/01 A3033 RMK A01 T01160014  RH  049%=      5-min Rain = 0
KCO1 060322Z 02009KT 12/01 A3033 RMK A01 T01160014  RH  049%=      5-min Rain = 0
KCO1 060323Z 02010KT 12/01 A3033 RMK A01 T01160014  RH  049%=      5-min Rain = 0
KCO1 060324Z 02010KT 12/01 A3033 RMK A01 T01160014  RH  049%=      5-min Rain = 0
KCO1 060325Z 02009KT 12/01 A3033 RMK A01 T01160014  RH  049%=      5-min Rain = 0
KCO1 060326Z 02009KT 12/01 A3033 RMK A01 T01160014  RH  049%=      5-min Rain = 0
KCO1 060327Z 02009KT 12/01 A3033 RMK A01 T01160014  RH  049%=      5-min Rain = 0
KCO1 060328Z 02009KT 12/01 A3033 RMK A01 T01160014  RH  049%=      5-min Rain = 0
KCO1 060329Z 02009KT 12/01 A3033 RMK A01 T01160014  RH  050%=      5-min Rain = 0
KCO1 060330Z 02008KT 12/01 A3033 RMK A01 T01150014  RH  050%=      5-min Rain = 0
KCO1 060331Z 02008KT 12/01 A3033 RMK A01 T01150014  RH  050%=      5-min Rain = 0
KCO1 060332Z 02008KT 11/01 A3033 RMK A01 T01140013  RH  050%=      5-min Rain = 0
KCO1 060333Z 02007KT 11/01 A3033 RMK A01 T01130013  RH  050%=      5-min Rain = 0
KCO1 060334Z 02007KT 11/01 A3033 RMK A01 T01130013  RH  050%=      5-min Rain = 0
KCO1 060335Z 02008KT 11/01 A3033 RMK A01 T01120013  RH  051%=      5-min Rain = 0
KCO1 060336Z 02007KT 11/01 A3033 RMK A01 T01120013  RH  051%=      5-min Rain = 0
KCO1 060337Z 02008KT 11/01 A3033 RMK A01 T01110013  RH  051%=      5-min Rain = 0
KCO1 060338Z 02007KT 11/01 A3033 RMK A01 T01110013  RH  051%=      5-min Rain = 0
KCO1 060339Z 02007KT 11/01 A3033 RMK A01 T01110013  RH  051%=      5-min Rain = 0
KCO1 060340Z 02006KT 11/01 A3033 RMK A01 T01100013  RH  051%=      5-min Rain = 0
KCO1 060341Z 02006KT 11/01 A3033 RMK A01 T01100013  RH  051%=      5-min Rain = 0
KCO1 060342Z 01006KT 11/01 A3033 RMK A01 T01090013  RH  051%=      5-min Rain = 0
KCO1 060343Z 02006KT 11/01 A3033 RMK A01 T01090013  RH  052%=      5-min Rain = 0
KCO1 060344Z 02006KT 11/01 A3033 RMK A01 T01080012  RH  052%=      5-min Rain = 0
KCO1 060345Z 02006KT 11/01 A3033 RMK A01 T01070012  RH  052%=      5-min Rain = 0
KCO1 060346Z 02006KT 11/01 A3033 RMK A01 T01060012  RH  052%=      5-min Rain = 0
KCO1 060347Z 01006KT 11/01 A3033 RMK A01 T01060012  RH  052%=      5-min Rain = 0
KCO1 060348Z 01006KT 11/01 A3033 RMK A01 T01050012  RH  052%=      5-min Rain = 0
KCO1 060349Z 01007KT 11/01 A3033 RMK A01 T01050012  RH  053%=      5-min Rain = 0
KCO1 060350Z 01006KT 10/01 A3033 RMK A01 T01040011  RH  053%=      5-min Rain = 0
KCO1 060351Z 01006KT 10/01 A3033 RMK A01 T01030011  RH  053%=      5-min Rain = 0
KCO1 060352Z 01006KT 10/01 A3033 RMK A01 T01020011  RH  053%=      5-min Rain = 0
KCO1 060353Z 01006KT 10/01 A3033 RMK A01 T01020011  RH  053%=      5-min Rain = 0
KCO1 060354Z 01006KT 10/01 A3033 RMK A01 T01010010  RH  053%=      5-min Rain = 0
KCO1 060355Z 01006KT 10/01 A3033 RMK A01 T01000010  RH  054%=      5-min Rain = 0
KCO1 060356Z 00006KT 10/01 A3033 RMK A01 T00990010  RH  054%=      5-min Rain = 0
KCO1 060357Z 00006KT 10/01 A3033 RMK A01 T00980009  RH  054%=      5-min Rain = 0
KCO1 060358Z 00006KT 10/01 A3033 RMK A01 T00980009  RH  054%=      5-min Rain = 0
KCO1 060359Z 00005KT 10/01 A3033 RMK A01 T00970009  RH  054%=      5-min Rain = 0
KCO1 060400Z 36005KT 10/01 A3033 RMK A01 T00960008  RH  054%=      5-min Rain = 0
KCO1 060401Z 00005KT 10/01 A3033 RMK A01 T00950008  RH  054%=      5-min Rain = 0
KCO1 060402Z 00005KT 10/01 A3033 RMK A01 T00950008  RH  055%=      5-min Rain = 0
KCO1 060403Z 00005KT 09/01 A3033 RMK A01 T00940008  RH  055%=      5-min Rain = 0
KCO1 060404Z 00004KT 09/01 A3033 RMK A01 T00930007  RH  055%=      5-min Rain = 0
KCO1 060405Z 00005KT 09/01 A3033 RMK A01 T00930008  RH  055%=      5-min Rain = 0
KCO1 060406Z 00005KT 09/01 A3033 RMK A01 T00920008  RH  056%=      5-min Rain = 0
KCO1 060407Z 00005KT 09/01 A3033 RMK A01 T00910008  RH  056%=      5-min Rain = 0
KCO1 060408Z 00005KT 09/01 A3033 RMK A01 T00910008  RH  056%=      5-min Rain = 0
KCO1 060409Z 00004KT 09/01 A3033 RMK A01 T00910008  RH  056%=      5-min Rain = 0
KCO1 060410Z 00005KT 09/01 A3033 RMK A01 T00910008  RH  056%=      5-min Rain = 0
KCO1 060411Z 00004KT 09/01 A3033 RMK A01 T00910008  RH  056%=      5-min Rain = 0
KCO1 060412Z 00005KT 09/01 A3033 RMK A01 T00900008  RH  056%=      5-min Rain = 0
KCO1 060413Z 00005KT 09/01 A3033 RMK A01 T00900008  RH  056%=      5-min Rain = 0
KCO1 060414Z 00005KT 09/01 A3033 RMK A01 T00900007  RH  056%=      5-min Rain = 0
KCO1 060415Z 00005KT 09/01 A3033 RMK A01 T00900007  RH  056%=      5-min Rain = 0
KCO1 060416Z 00004KT 09/01 A3033 RMK A01 T00890007  RH  056%=      5-min Rain = 0
KCO1 060417Z 00004KT 09/01 A3033 RMK A01 T00890007  RH  057%=      5-min Rain = 0
KCO1 060418Z 00004KT 09/01 A3033 RMK A01 T00890007  RH  057%=      5-min Rain = 0
KCO1 060419Z 00004KT 09/01 A3033 RMK A01 T00890008  RH  057%=      5-min Rain = 0
KCO1 060420Z 00004KT 09/01 A3033 RMK A01 T00890008  RH  057%=      5-min Rain = 0
KCO1 060421Z 00004KT 09/01 A3033 RMK A01 T00890008  RH  057%=      5-min Rain = 0
KCO1 060422Z 00004KT 09/01 A3033 RMK A01 T00890008  RH  057%=      5-min Rain = 0
KCO1 060423Z 00004KT 09/01 A3033 RMK A01 T00890008  RH  057%=      5-min Rain = 0
KCO1 060424Z 00004KT 09/01 A3033 RMK A01 T00880007  RH  057%=      5-min Rain = 0
KCO1 060425Z 00004KT 09/01 A3033 RMK A01 T00880008  RH  057%=      5-min Rain = 0
KCO1 060426Z 00004KT 09/01 A3033 RMK A01 T00890008  RH  057%=      5-min Rain = 0
KCO1 060427Z 00004KT 09/01 A3033 RMK A01 T00880007  RH  057%=      5-min Rain = 0
KCO1 060428Z 00004KT 09/01 A3033 RMK A01 T00880007  RH  057%=      5-min Rain = 0
KCO1 060429Z 00004KT 09/01 A3033 RMK A01 T00880008  RH  057%=      5-min Rain = 0
KCO1 060430Z 00004KT 09/01 A3033 RMK A01 T00880008  RH  057%=      5-min Rain = 0
KCO1 060431Z 00004KT 09/01 A3033 RMK A01 T00880008  RH  057%=      5-min Rain = 0
KCO1 060432Z 00004KT 09/01 A3033 RMK A01 T00880008  RH  057%=      5-min Rain = 0
KCO1 060433Z 00005KT 09/01 A3033 RMK A01 T00880008  RH  057%=      5-min Rain = 0
KCO1 060434Z 00005KT 09/01 A3033 RMK A01 T00880007  RH  057%=      5-min Rain = 0
KCO1 060435Z 36005KT 09/01 A3033 RMK A01 T00880007  RH  057%=      5-min Rain = 0
KCO1 060436Z 36005KT 09/01 A3033 RMK A01 T00880008  RH  057%=      5-min Rain = 0
KCO1 060437Z 35005KT 09/01 A3033 RMK A01 T00880008  RH  057%=      5-min Rain = 0
KCO1 060438Z 35005KT 09/01 A3033 RMK A01 T00880008  RH  057%=      5-min Rain = 0
KCO1 060439Z 35005KT 09/01 A3033 RMK A01 T00880008  RH  057%=      5-min Rain = 0
KCO1 060440Z 35005KT 09/01 A3033 RMK A01 T00880008  RH  057%=      5-min Rain = 0
KCO1 060441Z 35005KT 09/01 A3033 RMK A01 T00880008  RH  057%=      5-min Rain = 0
KCO1 060442Z 35005KT 09/01 A3033 RMK A01 T00880008  RH  057%=      5-min Rain = 0
KCO1 060443Z 35005KT 09/01 A3034 RMK A01 T00880008  RH  057%=      5-min Rain = 0
KCO1 060444Z 35004KT 09/01 A3034 RMK A01 T00880008  RH  057%=      5-min Rain = 0
KCO1 060445Z 35004KT 09/01 A3034 RMK A01 T00880007  RH  057%=      5-min Rain = 0
KCO1 060446Z 35004KT 09/01 A3034 RMK A01 T00870007  RH  057%=      5-min Rain = 0
KCO1 060447Z 35004KT 09/01 A3034 RMK A01 T00870007  RH  057%=      5-min Rain = 0
KCO1 060448Z 34004KT 09/01 A3034 RMK A01 T00860007  RH  057%=      5-min Rain = 0
KCO1 060449Z 34004KT 09/01 A3034 RMK A01 T00860007  RH  057%=      5-min Rain = 0
KCO1 060450Z 34004KT 09/01 A3034 RMK A01 T00860007  RH  057%=      5-min Rain = 0
KCO1 060451Z 34004KT 09/01 A3034 RMK A01 T00850007  RH  058%=      5-min Rain = 0
KCO1 060452Z 34004KT 09/01 A3034 RMK A01 T00850006  RH  058%=      5-min Rain = 0
KCO1 060453Z 34004KT 08/01 A3034 RMK A01 T00840006  RH  058%=      5-min Rain = 0
KCO1 060454Z 34004KT 08/01 A3034 RMK A01 T00830005  RH  058%=      5-min Rain = 0
KCO1 060455Z 34004KT 08/00 A3034 RMK A01 T00820004  RH  058%=      5-min Rain = 0
KCO1 060456Z 34004KT 08/00 A3034 RMK A01 T00810003  RH  058%=      5-min Rain = 0
KCO1 060457Z 34004KT 08/00 A3034 RMK A01 T00800003  RH  058%=      5-min Rain = 0
KCO1 060458Z 34004KT 08/00 A3034 RMK A01 T00800003  RH  058%=      5-min Rain = 0
KCO1 060459Z 34004KT 08/00 A3034 RMK A01 T00790003  RH  059%=      5-min Rain = 0
KCO1 060500Z 34004KT 08/00 A3034 RMK A01 T00790004  RH  059%=      5-min Rain = 0
KCO1 060501Z 34004KT 08/00 A3034 RMK A01 T00790004  RH  059%=      5-min Rain = 0
KCO1 060502Z 33004KT 08/00 A3034 RMK A01 T00790004  RH  059%=      5-min Rain = 0
KCO1 060503Z 33004KT 08/00 A3034 RMK A01 T00790004  RH  059%=      5-min Rain = 0
KCO1 060504Z 33004KT 08/00 A3034 RMK A01 T00790004  RH  059%=      5-min Rain = 0
KCO1 060505Z 33004KT 08/00 A3034 RMK A01 T00780003  RH  059%=      5-min Rain = 0
KCO1 060506Z 33004KT 08/00 A3034 RMK A01 T00770002  RH  059%=      5-min Rain = 0
KCO1 060507Z 33004KT 08/00 A3034 RMK A01 T00760003  RH  060%=      5-min Rain = 0
KCO1 060508Z 33004KT 08/00 A3034 RMK A01 T00760003  RH  060%=      5-min Rain = 0
KCO1 060509Z 33004KT 08/00 A3034 RMK A01 T00760003  RH  060%=      5-min Rain = 0
KCO1 060510Z 33004KT 08/00 A3034 RMK A01 T00760004  RH  060%=      5-min Rain = 0
KCO1 060511Z 33004KT 08/00 A3034 RMK A01 T00760003  RH  060%=      5-min Rain = 0
KCO1 060512Z 33004KT 08/00 A3034 RMK A01 T00760002  RH  060%=      5-min Rain = 0
KCO1 060513Z 33004KT 08/00 A3034 RMK A01 T00760003  RH  060%=      5-min Rain = 0
KCO1 060514Z 33004KT 08/00 A3034 RMK A01 T00760004  RH  060%=      5-min Rain = 0
KCO1 060515Z 33004KT 08/00 A3034 RMK A01 T00760003  RH  060%=      5-min Rain = 0
KCO1 060516Z 33004KT 08/00 A3034 RMK A01 T00760004  RH  060%=      5-min Rain = 0
KCO1 060517Z 32004KT 08/00 A3034 RMK A01 T00760003  RH  060%=      5-min Rain = 0
KCO1 060518Z 32004KT 08/00 A3034 RMK A01 T00760003  RH  060%=      5-min Rain = 0
KCO1 060519Z 32004KT 08/00 A3034 RMK A01 T00760003  RH  060%=      5-min Rain = 0
KCO1 060520Z 32003KT 08/00 A3034 RMK A01 T00760004  RH  060%=      5-min Rain = 0
KCO1 060521Z 32003KT 08/00 A3034 RMK A01 T00760004  RH  060%=      5-min Rain = 0
KCO1 060522Z 32003KT 08/00 A3034 RMK A01 T00750003  RH  060%=      5-min Rain = 0
KCO1 060523Z 32003KT 08/00 A3034 RMK A01 T00750003  RH  060%=      5-min Rain = 0
KCO1 060524Z 32003KT 07/00 A3034 RMK A01 T00740003  RH  060%=      5-min Rain = 0
KCO1 060525Z 32003KT 07/00 A3034 RMK A01 T00740002  RH  060%=      5-min Rain = 0
KCO1 060526Z 32003KT 07/00 A3034 RMK A01 T00730002  RH  061%=      5-min Rain = 0
KCO1 060527Z 33003KT 07/00 A3034 RMK A01 T00730003  RH  061%=      5-min Rain = 0
KCO1 060528Z 33004KT 07/00 A3034 RMK A01 T00730004  RH  062%=      5-min Rain = 0
KCO1 060529Z 33004KT 07/00 A3034 RMK A01 T00730004  RH  062%=      5-min Rain = 0
KCO1 060530Z 33004KT 07/00 A3034 RMK A01 T00730004  RH  062%=      5-min Rain = 0
KCO1 060531Z 33004KT 07/00 A3034 RMK A01 T00730004  RH  061%=      5-min Rain = 0
KCO1 060532Z 33004KT 07/00 A3034 RMK A01 T00730002  RH  061%=      5-min Rain = 0
KCO1 060533Z 33004KT 07/00 A3034 RMK A01 T00740003  RH  061%=      5-min Rain = 0
KCO1 060534Z 34005KT 07/00 A3034 RMK A01 T00730004  RH  061%=      5-min Rain = 0
KCO1 060535Z 34005KT 07/00 A3034 RMK A01 T00730004  RH  061%=      5-min Rain = 0
KCO1 060536Z 34004KT 07/01 A3034 RMK A01 T00740005  RH  062%=      5-min Rain = 0
KCO1 060537Z 34004KT 07/00 A3034 RMK A01 T00730004  RH  062%=      5-min Rain = 0
KCO1 060538Z 34004KT 07/00 A3034 RMK A01 T00730004  RH  061%=      5-min Rain = 0
KCO1 060539Z 34004KT 07/00 A3034 RMK A01 T00730003  RH  061%=      5-min Rain = 0
KCO1 060540Z 34004KT 07/00 A3034 RMK A01 T00720003  RH  061%=      5-min Rain = 0
KCO1 060541Z 34004KT 07/00 A3034 RMK A01 T00720003  RH  062%=      5-min Rain = 0
KCO1 060542Z 34004KT 07/00 A3034 RMK A01 T00720004  RH  062%=      5-min Rain = 0
KCO1 060543Z 35004KT 07/00 A3034 RMK A01 T00720004  RH  062%=      5-min Rain = 0
KCO1 060544Z 35004KT 07/01 A3034 RMK A01 T00720005  RH  062%=      5-min Rain = 0
KCO1 060545Z 35004KT 07/01 A3034 RMK A01 T00710005  RH  062%=      5-min Rain = 0
KCO1 060546Z 35004KT 07/01 A3034 RMK A01 T00720005  RH  062%=      5-min Rain = 0
KCO1 060547Z 35004KT 07/00 A3034 RMK A01 T00720004  RH  062%=      5-min Rain = 0
KCO1 060548Z 35004KT 07/00 A3034 RMK A01 T00720004  RH  062%=      5-min Rain = 0
KCO1 060549Z 35004KT 07/00 A3034 RMK A01 T00720004  RH  062%=      5-min Rain = 0
KCO1 060550Z 35004KT 07/00 A3034 RMK A01 T00710004  RH  062%=      5-min Rain = 0
KCO1 060551Z 35004KT 07/00 A3034 RMK A01 T00710004  RH  062%=      5-min Rain = 0
KCO1 060552Z 35004KT 07/00 A3034 RMK A01 T00710004  RH  062%=      5-min Rain = 0
KCO1 060553Z 35004KT 07/00 A3034 RMK A01 T00710004  RH  062%=      5-min Rain = 0
KCO1 060554Z 35004KT 07/00 A3034 RMK A01 T00710004  RH  063%=      5-min Rain = 0
KCO1 060555Z 35004KT 07/00 A3034 RMK A01 T00710004  RH  063%=      5-min Rain = 0
KCO1 060556Z 36004KT 07/01 A3034 RMK A01 T00710005  RH  063%=      5-min Rain = 0
KCO1 060557Z 35004KT 07/01 A3034 RMK A01 T00710005  RH  063%=      5-min Rain = 0
KCO1 060558Z 35004KT 07/00 A3034 RMK A01 T00700004  RH  063%=      5-min Rain = 0
KCO1 060559Z 36004KT 07/00 A3034 RMK A01 T00700004  RH  063%=      5-min Rain = 0

Page generated in 0.1808 seconds.